Observation data for Dozier on 01/20/2019      Previous  Date  Next       Current Mesonet Observations  Soil Data  Daily Summary Page  Observations in Plain Language
KDO1 200600Z 05004KT M05/M07 A3031 RMK A01 T10511068  RH  088%=      5-min Rain = 0
KDO1 200601Z 05004KT M05/M07 A3031 RMK A01 T10511068  RH  088%=      5-min Rain = 0
KDO1 200602Z 05004KT M05/M07 A3031 RMK A01 T10521069  RH  088%=      5-min Rain = 0
KDO1 200603Z 04004KT M05/M07 A3031 RMK A01 T10521068  RH  088%=      5-min Rain = 0
KDO1 200604Z 04004KT M05/M07 A3031 RMK A01 T10531069  RH  089%=      5-min Rain = 0
KDO1 200605Z 04003KT M05/M07 A3031 RMK A01 T10531069  RH  089%=      5-min Rain = 0
KDO1 200606Z 03003KT M05/M07 A3032 RMK A01 T10531069  RH  089%=      5-min Rain = 0
KDO1 200607Z 01002KT M05/M07 A3032 RMK A01 T10531069  RH  089%=      5-min Rain = 0
KDO1 200608Z 35002KT M05/M07 A3032 RMK A01 T10531068  RH  089%=      5-min Rain = 0
KDO1 200609Z 32002KT M05/M07 A3033 RMK A01 T10531068  RH  089%=      5-min Rain = 0
KDO1 200610Z 32001KT M05/M07 A3033 RMK A01 T10541068  RH  090%=      5-min Rain = 0
KDO1 200611Z 32001KT M05/M07 A3033 RMK A01 T10541068  RH  090%=      5-min Rain = 0
KDO1 200612Z 32001KT M05/M07 A3033 RMK A01 T10541068  RH  090%=      5-min Rain = 0
KDO1 200613Z 35001KT M05/M07 A3033 RMK A01 T10541068  RH  090%=      5-min Rain = 0
KDO1 200614Z 01000KT M06/M07 A3033 RMK A01 T10551068  RH  090%=      5-min Rain = 0
KDO1 200615Z 04000KT M06/M07 A3033 RMK A01 T10551068  RH  090%=      5-min Rain = 0
KDO1 200616Z 04000KT M06/M07 A3033 RMK A01 T10551068  RH  090%=      5-min Rain = 0
KDO1 200617Z 27002KT M05/M07 A3033 RMK A01 T10541068  RH  090%=      5-min Rain = 0
KDO1 200618Z 25004KT M06/M07 A3033 RMK A01 T10551068  RH  090%=      5-min Rain = 0
KDO1 200619Z 24006KT M06/M07 A3033 RMK A01 T10551069  RH  090%=      5-min Rain = 0
KDO1 200620Z 24006KT M06/M07 A3033 RMK A01 T10561069  RH  091%=      5-min Rain = 0
KDO1 200621Z 25006KT M06/M07 A3033 RMK A01 T10571069  RH  091%=      5-min Rain = 0
KDO1 200622Z 25005KT M06/M07 A3033 RMK A01 T10571068  RH  092%=      5-min Rain = 0
KDO1 200623Z 25004KT M06/M07 A3033 RMK A01 T10581068  RH  093%=      5-min Rain = 0
KDO1 200624Z 25004KT M06/M07 A3033 RMK A01 T10561066  RH  093%=      5-min Rain = 0
KDO1 200625Z 25005KT M05/M06 A3033 RMK A01 T10541064  RH  093%=      5-min Rain = 0
KDO1 200626Z 26005KT M05/M06 A3033 RMK A01 T10531064  RH  092%=      5-min Rain = 0
KDO1 200627Z 25005KT M05/M06 A3033 RMK A01 T10521063  RH  092%=      5-min Rain = 0
KDO1 200628Z 25004KT M05/M06 A3033 RMK A01 T10511063  RH  091%=      5-min Rain = 0
KDO1 200629Z 25004KT M05/M06 A3033 RMK A01 T10501064  RH  090%=      5-min Rain = 0
KDO1 200630Z 25004KT M05/M06 A3033 RMK A01 T10501064  RH  090%=      5-min Rain = 0
KDO1 200631Z 25004KT M05/M06 A3032 RMK A01 T10501064  RH  090%=      5-min Rain = 0
KDO1 200632Z 25004KT M05/M06 A3032 RMK A01 T10501064  RH  089%=      5-min Rain = 0
KDO1 200633Z 25003KT M05/M07 A3032 RMK A01 T10491065  RH  089%=      5-min Rain = 0
KDO1 200634Z 26002KT M05/M07 A3032 RMK A01 T10491065  RH  089%=      5-min Rain = 0
KDO1 200635Z 26002KT M05/M06 A3032 RMK A01 T10491064  RH  089%=      5-min Rain = 0
KDO1 200636Z 27002KT M05/M06 A3032 RMK A01 T10491064  RH  089%=      5-min Rain = 0
KDO1 200637Z 27002KT M05/M06 A3032 RMK A01 T10481064  RH  089%=      5-min Rain = 0
KDO1 200638Z 28002KT M05/M06 A3032 RMK A01 T10471064  RH  088%=      5-min Rain = 0
KDO1 200639Z 29001KT M05/M06 A3032 RMK A01 T10451063  RH  087%=      5-min Rain = 0
KDO1 200640Z 28001KT M04/M06 A3032 RMK A01 T10441063  RH  087%=      5-min Rain = 0
KDO1 200641Z 28002KT M04/M06 A3032 RMK A01 T10441063  RH  087%=      5-min Rain = 0
KDO1 200642Z 27002KT M04/M06 A3033 RMK A01 T10441063  RH  086%=      5-min Rain = 0
KDO1 200643Z 26003KT M04/M06 A3033 RMK A01 T10441063  RH  086%=      5-min Rain = 0
KDO1 200644Z 26003KT M04/M06 A3033 RMK A01 T10441064  RH  087%=      5-min Rain = 0
KDO1 200645Z 25003KT M05/M06 A3033 RMK A01 T10451064  RH  087%=      5-min Rain = 0
KDO1 200646Z 25003KT M05/M06 A3033 RMK A01 T10451064  RH  087%=      5-min Rain = 0
KDO1 200647Z 25002KT M05/M06 A3033 RMK A01 T10451064  RH  086%=      5-min Rain = 0
KDO1 200648Z 26002KT M05/M07 A3033 RMK A01 T10451065  RH  086%=      5-min Rain = 0
KDO1 200649Z 27002KT M05/M07 A3033 RMK A01 T10451065  RH  086%=      5-min Rain = 0
KDO1 200650Z 27002KT M05/M07 A3033 RMK A01 T10451065  RH  086%=      5-min Rain = 0
KDO1 200651Z 26002KT M05/M07 A3033 RMK A01 T10461065  RH  087%=      5-min Rain = 0
KDO1 200652Z 26002KT M05/M06 A3033 RMK A01 T10461064  RH  087%=      5-min Rain = 0
KDO1 200653Z 27001KT M05/M06 A3033 RMK A01 T10471064  RH  088%=      5-min Rain = 0
KDO1 200654Z 27001KT M05/M06 A3033 RMK A01 T10471063  RH  088%=      5-min Rain = 0
KDO1 200655Z 27000KT M05/M06 A3032 RMK A01 T10471064  RH  088%=      5-min Rain = 0
KDO1 200656Z 00000KT M05/M07 A3032 RMK A01 T10471065  RH  088%=      5-min Rain = 0
KDO1 200657Z 00000KT M05/M07 A3032 RMK A01 T10471065  RH  087%=      5-min Rain = 0
KDO1 200658Z 00000KT M05/M07 A3032 RMK A01 T10471065  RH  087%=      5-min Rain = 0
KDO1 200659Z 00000KT M05/M07 A3032 RMK A01 T10481066  RH  088%=      5-min Rain = 0
KDO1 200700Z 00000KT M05/M07 A3032 RMK A01 T10491066  RH  088%=      5-min Rain = 0
KDO1 200701Z 35000KT M05/M07 A3032 RMK A01 T10501065  RH  089%=      5-min Rain = 0
KDO1 200702Z 00000KT M05/M07 A3032 RMK A01 T10501065  RH  089%=      5-min Rain = 0
KDO1 200703Z 30000KT M05/M07 A3032 RMK A01 T10501065  RH  089%=      5-min Rain = 0
KDO1 200704Z 29001KT M05/M07 A3032 RMK A01 T10501066  RH  089%=      5-min Rain = 0
KDO1 200705Z 29001KT M05/M07 A3032 RMK A01 T10501066  RH  089%=      5-min Rain = 0
KDO1 200706Z 30001KT M05/M07 A3033 RMK A01 T10491065  RH  089%=      5-min Rain = 0
KDO1 200707Z 29001KT M05/M07 A3033 RMK A01 T10491066  RH  088%=      5-min Rain = 0
KDO1 200708Z 28002KT M05/M07 A3034 RMK A01 T10491066  RH  088%=      5-min Rain = 0
KDO1 200709Z 26002KT M05/M07 A3034 RMK A01 T10501065  RH  089%=      5-min Rain = 0
KDO1 200710Z 26003KT M05/M07 A3034 RMK A01 T10501065  RH  089%=      5-min Rain = 0
KDO1 200711Z 27003KT M05/M07 A3034 RMK A01 T10511066  RH  089%=      5-min Rain = 0
KDO1 200712Z 27003KT M05/M07 A3034 RMK A01 T10521066  RH  090%=      5-min Rain = 0
KDO1 200713Z 27002KT M05/M07 A3033 RMK A01 T10521067  RH  090%=      5-min Rain = 0
KDO1 200714Z 27002KT M05/M07 A3033 RMK A01 T10521067  RH  090%=      5-min Rain = 0
KDO1 200715Z 25002KT M05/M07 A3033 RMK A01 T10531067  RH  089%=      5-min Rain = 0
KDO1 200716Z 24003KT M05/M07 A3033 RMK A01 T10531068  RH  089%=      5-min Rain = 0
KDO1 200717Z 24004KT M05/M07 A3033 RMK A01 T10541069  RH  089%=      5-min Rain = 0
KDO1 200718Z 24004KT M05/M07 A3033 RMK A01 T10541068  RH  090%=      5-min Rain = 0
KDO1 200719Z 25005KT M05/M07 A3033 RMK A01 T10531066  RH  090%=      5-min Rain = 0
KDO1 200720Z 25004KT M05/M07 A3033 RMK A01 T10511065  RH  090%=      5-min Rain = 0
KDO1 200721Z 26004KT M05/M07 A3033 RMK A01 T10501066  RH  089%=      5-min Rain = 0
KDO1 200722Z 26004KT M05/M07 A3033 RMK A01 T10501066  RH  089%=      5-min Rain = 0
KDO1 200723Z 25004KT M05/M07 A3033 RMK A01 T10501066  RH  089%=      5-min Rain = 0
KDO1 200724Z 26004KT M05/M07 A3033 RMK A01 T10501066  RH  089%=      5-min Rain = 0
KDO1 200725Z 25004KT M05/M07 A3032 RMK A01 T10501066  RH  089%=      5-min Rain = 0
KDO1 200726Z 25004KT M05/M07 A3032 RMK A01 T10501066  RH  089%=      5-min Rain = 0
KDO1 200727Z 25004KT M05/M07 A3032 RMK A01 T10491065  RH  088%=      5-min Rain = 0
KDO1 200728Z 25004KT M05/M07 A3032 RMK A01 T10481065  RH  088%=      5-min Rain = 0
KDO1 200729Z 25003KT M05/M07 A3032 RMK A01 T10471065  RH  088%=      5-min Rain = 0
KDO1 200730Z 26003KT M05/M07 A3032 RMK A01 T10471065  RH  087%=      5-min Rain = 0
KDO1 200731Z 26003KT M05/M07 A3032 RMK A01 T10461065  RH  087%=      5-min Rain = 0
KDO1 200732Z 27003KT M05/M06 A3032 RMK A01 T10451064  RH  087%=      5-min Rain = 0
KDO1 200733Z 27003KT M05/M06 A3032 RMK A01 T10451064  RH  087%=      5-min Rain = 0
KDO1 200734Z 27003KT M05/M06 A3032 RMK A01 T10451064  RH  087%=      5-min Rain = 0
KDO1 200735Z 26004KT M05/M06 A3032 RMK A01 T10451064  RH  086%=      5-min Rain = 0
KDO1 200736Z 26004KT M04/M06 A3032 RMK A01 T10441064  RH  086%=      5-min Rain = 0
KDO1 200737Z 26003KT M04/M06 A3032 RMK A01 T10431064  RH  085%=      5-min Rain = 0
KDO1 200738Z 27002KT M04/M06 A3032 RMK A01 T10431064  RH  085%=      5-min Rain = 0
KDO1 200739Z 27002KT M04/M06 A3032 RMK A01 T10431064  RH  085%=      5-min Rain = 0
KDO1 200740Z 26003KT M04/M07 A3032 RMK A01 T10431065  RH  085%=      5-min Rain = 0
KDO1 200741Z 25004KT M04/M07 A3032 RMK A01 T10431065  RH  085%=      5-min Rain = 0
KDO1 200742Z 26004KT M04/M07 A3032 RMK A01 T10431065  RH  085%=      5-min Rain = 0
KDO1 200743Z 26003KT M04/M07 A3032 RMK A01 T10431065  RH  085%=      5-min Rain = 0
KDO1 200744Z 28003KT M04/M07 A3032 RMK A01 T10431065  RH  085%=      5-min Rain = 0
KDO1 200745Z 29003KT M04/M07 A3032 RMK A01 T10441066  RH  085%=      5-min Rain = 0
KDO1 200746Z 29003KT M05/M07 A3032 RMK A01 T10451066  RH  085%=      5-min Rain = 0
KDO1 200747Z 28003KT M05/M07 A3032 RMK A01 T10451066  RH  085%=      5-min Rain = 0
KDO1 200748Z 28003KT M05/M07 A3032 RMK A01 T10451066  RH  085%=      5-min Rain = 0
KDO1 200749Z 28003KT M05/M07 A3032 RMK A01 T10451066  RH  085%=      5-min Rain = 0
KDO1 200750Z 28003KT M05/M07 A3032 RMK A01 T10451066  RH  085%=      5-min Rain = 0
KDO1 200751Z 28002KT M05/M07 A3032 RMK A01 T10451066  RH  085%=      5-min Rain = 0
KDO1 200752Z 28003KT M05/M07 A3032 RMK A01 T10451065  RH  085%=      5-min Rain = 0
KDO1 200753Z 27003KT M05/M07 A3032 RMK A01 T10451066  RH  085%=      5-min Rain = 0
KDO1 200754Z 27004KT M05/M07 A3032 RMK A01 T10451066  RH  085%=      5-min Rain = 0
KDO1 200755Z 27004KT M04/M07 A3032 RMK A01 T10441066  RH  085%=      5-min Rain = 0
KDO1 200756Z 26004KT M04/M07 A3032 RMK A01 T10441066  RH  085%=      5-min Rain = 0
KDO1 200757Z 26004KT M04/M07 A3032 RMK A01 T10441066  RH  085%=      5-min Rain = 0
KDO1 200758Z 26004KT M04/M07 A3033 RMK A01 T10441067  RH  085%=      5-min Rain = 0
KDO1 200759Z 26004KT M05/M07 A3033 RMK A01 T10451067  RH  085%=      5-min Rain = 0
KDO1 200800Z 28005KT M05/M07 A3033 RMK A01 T10451067  RH  085%=      5-min Rain = 0
KDO1 200801Z 29004KT M05/M07 A3033 RMK A01 T10451067  RH  085%=      5-min Rain = 0
KDO1 200802Z 29004KT M05/M07 A3033 RMK A01 T10451067  RH  085%=      5-min Rain = 0
KDO1 200803Z 29003KT M05/M07 A3033 RMK A01 T10451067  RH  085%=      5-min Rain = 0
KDO1 200804Z 28003KT M05/M07 A3033 RMK A01 T10451067  RH  085%=      5-min Rain = 0
KDO1 200805Z 27003KT M05/M07 A3033 RMK A01 T10451067  RH  085%=      5-min Rain = 0
KDO1 200806Z 27003KT M05/M07 A3033 RMK A01 T10451067  RH  085%=      5-min Rain = 0
KDO1 200807Z 28004KT M05/M07 A3033 RMK A01 T10451067  RH  085%=      5-min Rain = 0
KDO1 200808Z 28004KT M05/M07 A3033 RMK A01 T10451067  RH  085%=      5-min Rain = 0
KDO1 200809Z 28004KT M05/M07 A3033 RMK A01 T10451067  RH  085%=      5-min Rain = 0
KDO1 200810Z 28004KT M05/M07 A3033 RMK A01 T10451067  RH  085%=      5-min Rain = 0
KDO1 200811Z 27002KT M05/M07 A3033 RMK A01 T10451067  RH  085%=      5-min Rain = 0
KDO1 200812Z 26002KT M05/M07 A3033 RMK A01 T10451067  RH  084%=      5-min Rain = 0
KDO1 200813Z 26002KT M04/M07 A3033 RMK A01 T10441067  RH  084%=      5-min Rain = 0
KDO1 200814Z 27002KT M05/M07 A3032 RMK A01 T10451067  RH  084%=      5-min Rain = 0
KDO1 200815Z 27002KT M05/M07 A3032 RMK A01 T10451067  RH  084%=      5-min Rain = 0
KDO1 200816Z 27002KT M05/M07 A3032 RMK A01 T10451067  RH  084%=      5-min Rain = 0
KDO1 200817Z 26003KT M05/M07 A3032 RMK A01 T10451067  RH  085%=      5-min Rain = 0
KDO1 200818Z 25003KT M05/M07 A3033 RMK A01 T10461068  RH  085%=      5-min Rain = 0
KDO1 200819Z 25002KT M05/M07 A3033 RMK A01 T10471068  RH  085%=      5-min Rain = 0
KDO1 200820Z 27002KT M05/M07 A3033 RMK A01 T10481068  RH  086%=      5-min Rain = 0
KDO1 200821Z 28001KT M05/M07 A3033 RMK A01 T10491068  RH  086%=      5-min Rain = 0
KDO1 200822Z 28001KT M05/M07 A3032 RMK A01 T10501069  RH  086%=      5-min Rain = 0
KDO1 200823Z 26000KT M05/M07 A3032 RMK A01 T10521073  RH  085%=      5-min Rain = 0
KDO1 200824Z 00000KT M06/M08 A3032 RMK A01 T10571077  RH  085%=      5-min Rain = 0
KDO1 200825Z 34001KT M06/M08 A3033 RMK A01 T10601079  RH  086%=      5-min Rain = 0
KDO1 200826Z 31002KT M06/M08 A3033 RMK A01 T10621079  RH  088%=      5-min Rain = 0
KDO1 200827Z 28002KT M06/M08 A3033 RMK A01 T10631077  RH  090%=      5-min Rain = 0
KDO1 200828Z 28003KT M06/M07 A3033 RMK A01 T10621074  RH  091%=      5-min Rain = 0
KDO1 200829Z 28003KT M06/M07 A3033 RMK A01 T10591069  RH  093%=      5-min Rain = 0
KDO1 200830Z 28003KT M06/M07 A3033 RMK A01 T10571067  RH  093%=      5-min Rain = 0
KDO1 200831Z 27003KT M06/M07 A3033 RMK A01 T10561067  RH  092%=      5-min Rain = 0
KDO1 200832Z 28002KT M06/M07 A3033 RMK A01 T10551067  RH  091%=      5-min Rain = 0
KDO1 200833Z 28002KT M05/M07 A3033 RMK A01 T10541067  RH  091%=      5-min Rain = 0
KDO1 200834Z 30002KT M05/M07 A3033 RMK A01 T10541067  RH  090%=      5-min Rain = 0
KDO1 200835Z 30002KT M05/M07 A3033 RMK A01 T10531067  RH  090%=      5-min Rain = 0
KDO1 200836Z 29001KT M05/M07 A3033 RMK A01 T10531067  RH  090%=      5-min Rain = 0
KDO1 200837Z 27000KT M05/M07 A3033 RMK A01 T10541068  RH  090%=      5-min Rain = 0
KDO1 200838Z 26000KT M06/M07 A3033 RMK A01 T10551070  RH  089%=      5-min Rain = 0
KDO1 200839Z 00000KT M06/M07 A3032 RMK A01 T10571073  RH  089%=      5-min Rain = 0
KDO1 200840Z 32000KT M06/M08 A3032 RMK A01 T10601076  RH  088%=      5-min Rain = 0
KDO1 200841Z 29001KT M06/M08 A3032 RMK A01 T10621077  RH  089%=      5-min Rain = 0
KDO1 200842Z 26001KT M06/M08 A3032 RMK A01 T10631077  RH  090%=      5-min Rain = 0
KDO1 200843Z 24001KT M06/M08 A3033 RMK A01 T10631076  RH  091%=      5-min Rain = 0
KDO1 200844Z 22001KT M06/M08 A3033 RMK A01 T10631075  RH  091%=      5-min Rain = 0
KDO1 200845Z 20001KT M06/M08 A3033 RMK A01 T10641077  RH  091%=      5-min Rain = 0
KDO1 200846Z 21002KT M07/M08 A3033 RMK A01 T10651078  RH  091%=      5-min Rain = 0
KDO1 200847Z 21002KT M07/M08 A3032 RMK A01 T10651076  RH  092%=      5-min Rain = 0
KDO1 200848Z 22002KT M06/M07 A3032 RMK A01 T10641074  RH  093%=      5-min Rain = 0
KDO1 200849Z 21002KT M06/M07 A3032 RMK A01 T10631073  RH  093%=      5-min Rain = 0
KDO1 200850Z 20003KT M06/M07 A3032 RMK A01 T10621072  RH  093%=      5-min Rain = 0
KDO1 200851Z 19003KT M06/M07 A3032 RMK A01 T10611072  RH  092%=      5-min Rain = 0
KDO1 200852Z 19003KT M06/M07 A3032 RMK A01 T10611073  RH  092%=      5-min Rain = 0
KDO1 200853Z 19003KT M06/M07 A3032 RMK A01 T10621074  RH  091%=      5-min Rain = 0
KDO1 200854Z 19003KT M06/M08 A3032 RMK A01 T10631075  RH  091%=      5-min Rain = 0
KDO1 200855Z 19003KT M06/M08 A3032 RMK A01 T10641076  RH  091%=      5-min Rain = 0
KDO1 200856Z 19003KT M06/M08 A3032 RMK A01 T10641076  RH  091%=      5-min Rain = 0
KDO1 200857Z 20002KT M07/M08 A3032 RMK A01 T10651077  RH  091%=      5-min Rain = 0
KDO1 200858Z 21002KT M07/M08 A3032 RMK A01 T10651077  RH  091%=      5-min Rain = 0
KDO1 200859Z 22002KT M07/M08 A3032 RMK A01 T10651076  RH  092%=      5-min Rain = 0
KDO1 200900Z 22003KT M07/M08 A3032 RMK A01 T10651076  RH  092%=      5-min Rain = 0
KDO1 200901Z 23003KT M07/M08 A3032 RMK A01 T10651075  RH  093%=      5-min Rain = 0
KDO1 200902Z 23003KT M07/M08 A3032 RMK A01 T10651075  RH  093%=      5-min Rain = 0
KDO1 200903Z 22003KT M07/M08 A3032 RMK A01 T10651075  RH  093%=      5-min Rain = 0
KDO1 200904Z 22003KT M07/M08 A3032 RMK A01 T10661076  RH  093%=      5-min Rain = 0
KDO1 200905Z 21003KT M07/M08 A3032 RMK A01 T10661076  RH  093%=      5-min Rain = 0
KDO1 200906Z 22003KT M07/M08 A3032 RMK A01 T10671077  RH  093%=      5-min Rain = 0
KDO1 200907Z 22003KT M07/M08 A3032 RMK A01 T10671077  RH  093%=      5-min Rain = 0
KDO1 200908Z 22004KT M07/M08 A3032 RMK A01 T10681077  RH  093%=      5-min Rain = 0
KDO1 200909Z 22004KT M07/M08 A3032 RMK A01 T10681078  RH  093%=      5-min Rain = 0
KDO1 200910Z 22004KT M07/M08 A3032 RMK A01 T10691078  RH  093%=      5-min Rain = 0
KDO1 200911Z 22004KT M07/M08 A3032 RMK A01 T10691078  RH  093%=      5-min Rain = 0
KDO1 200912Z 23004KT M07/M08 A3032 RMK A01 T10701079  RH  093%=      5-min Rain = 0
KDO1 200913Z 23003KT M07/M08 A3032 RMK A01 T10701078  RH  094%=      5-min Rain = 0
KDO1 200914Z 23003KT M07/M08 A3032 RMK A01 T10701078  RH  094%=      5-min Rain = 0
KDO1 200915Z 23003KT M07/M08 A3032 RMK A01 T10691076  RH  095%=      5-min Rain = 0
KDO1 200916Z 23003KT M07/M08 A3032 RMK A01 T10681075  RH  095%=      5-min Rain = 0
KDO1 200917Z 23003KT M07/M07 A3032 RMK A01 T10671074  RH  095%=      5-min Rain = 0
KDO1 200918Z 22004KT M07/M07 A3032 RMK A01 T10661073  RH  095%=      5-min Rain = 0
KDO1 200919Z 22004KT M07/M07 A3032 RMK A01 T10661073  RH  094%=      5-min Rain = 0
KDO1 200920Z 22004KT M07/M07 A3032 RMK A01 T10651073  RH  094%=      5-min Rain = 0
KDO1 200921Z 22004KT M07/M07 A3032 RMK A01 T10651073  RH  094%=      5-min Rain = 0
KDO1 200922Z 22004KT M06/M07 A3032 RMK A01 T10641072  RH  094%=      5-min Rain = 0
KDO1 200923Z 23004KT M07/M07 A3032 RMK A01 T10651073  RH  094%=      5-min Rain = 0
KDO1 200924Z 23005KT M06/M07 A3032 RMK A01 T10641073  RH  094%=      5-min Rain = 0
KDO1 200925Z 23005KT M07/M07 A3032 RMK A01 T10651073  RH  094%=      5-min Rain = 0
KDO1 200926Z 23005KT M07/M07 A3031 RMK A01 T10651074  RH  094%=      5-min Rain = 0
KDO1 200927Z 23007KT M07/M07 A3031 RMK A01 T10651074  RH  094%=      5-min Rain = 0
KDO1 200928Z 23007KT M07/M08 A3031 RMK A01 T10661075  RH  094%=      5-min Rain = 0
KDO1 200929Z 23007KT M07/M08 A3031 RMK A01 T10671075  RH  094%=      5-min Rain = 0
KDO1 200930Z 23007KT M07/M08 A3031 RMK A01 T10671075  RH  094%=      5-min Rain = 0
KDO1 200931Z 23006KT M07/M08 A3031 RMK A01 T10671075  RH  094%=      5-min Rain = 0
KDO1 200932Z 23005KT M07/M08 A3031 RMK A01 T10671076  RH  094%=      5-min Rain = 0
KDO1 200933Z 23005KT M07/M08 A3031 RMK A01 T10671076  RH  094%=      5-min Rain = 0
KDO1 200934Z 22005KT M07/M08 A3031 RMK A01 T10671076  RH  094%=      5-min Rain = 0
KDO1 200935Z 23005KT M07/M08 A3031 RMK A01 T10671075  RH  094%=      5-min Rain = 0
KDO1 200936Z 23005KT M07/M08 A3031 RMK A01 T10671076  RH  093%=      5-min Rain = 0
KDO1 200937Z 24005KT M07/M08 A3031 RMK A01 T10671076  RH  093%=      5-min Rain = 0
KDO1 200938Z 24005KT M07/M08 A3031 RMK A01 T10671076  RH  093%=      5-min Rain = 0
KDO1 200939Z 24005KT M07/M08 A3031 RMK A01 T10671077  RH  093%=      5-min Rain = 0
KDO1 200940Z 24005KT M07/M08 A3031 RMK A01 T10681077  RH  093%=      5-min Rain = 0
KDO1 200941Z 24005KT M07/M08 A3031 RMK A01 T10681077  RH  093%=      5-min Rain = 0
KDO1 200942Z 24005KT M07/M08 A3031 RMK A01 T10671077  RH  093%=      5-min Rain = 0
KDO1 200943Z 23005KT M07/M08 A3031 RMK A01 T10671076  RH  094%=      5-min Rain = 0
KDO1 200944Z 24005KT M07/M08 A3031 RMK A01 T10671076  RH  094%=      5-min Rain = 0
KDO1 200945Z 23005KT M07/M08 A3031 RMK A01 T10661075  RH  094%=      5-min Rain = 0
KDO1 200946Z 24004KT M07/M08 A3031 RMK A01 T10661075  RH  093%=      5-min Rain = 0
KDO1 200947Z 24004KT M07/M08 A3031 RMK A01 T10661075  RH  093%=      5-min Rain = 0
KDO1 200948Z 24004KT M07/M07 A303 RMK A01 T10651074  RH  093%=      5-min Rain = 0
KDO1 200949Z 23005KT M06/M07 A303 RMK A01 T10641074  RH  093%=      5-min Rain = 0
KDO1 200950Z 23005KT M06/M07 A303 RMK A01 T10641074  RH  093%=      5-min Rain = 0
KDO1 200951Z 23004KT M06/M07 A303 RMK A01 T10641074  RH  093%=      5-min Rain = 0
KDO1 200952Z 23004KT M06/M07 A303 RMK A01 T10641074  RH  093%=      5-min Rain = 0
KDO1 200953Z 24005KT M06/M07 A303 RMK A01 T10641074  RH  093%=      5-min Rain = 0
KDO1 200954Z 24005KT M06/M07 A303 RMK A01 T10641074  RH  092%=      5-min Rain = 0
KDO1 200955Z 24005KT M06/M07 A303 RMK A01 T10641074  RH  092%=      5-min Rain = 0
KDO1 200956Z 24005KT M06/M08 A303 RMK A01 T10641075  RH  092%=      5-min Rain = 0
KDO1 200957Z 24005KT M06/M07 A303 RMK A01 T10631074  RH  092%=      5-min Rain = 0
KDO1 200958Z 24005KT M06/M07 A303 RMK A01 T10641074  RH  092%=      5-min Rain = 0
KDO1 200959Z 24005KT M06/M07 A303 RMK A01 T10641074  RH  092%=      5-min Rain = 0
KDO1 201000Z 25005KT M06/M07 A303 RMK A01 T10641074  RH  092%=      5-min Rain = 0
KDO1 201001Z 24004KT M06/M07 A303 RMK A01 T10631073  RH  093%=      5-min Rain = 0
KDO1 201002Z 24005KT M06/M07 A303 RMK A01 T10631073  RH  093%=      5-min Rain = 0
KDO1 201003Z 24005KT M06/M07 A303 RMK A01 T10621072  RH  093%=      5-min Rain = 0
KDO1 201004Z 24005KT M06/M07 A303 RMK A01 T10611071  RH  093%=      5-min Rain = 0
KDO1 201005Z 24005KT M06/M07 A303 RMK A01 T10611071  RH  092%=      5-min Rain = 0
KDO1 201006Z 24005KT M06/M07 A303 RMK A01 T10601071  RH  092%=      5-min Rain = 0
KDO1 201007Z 25005KT M06/M07 A303 RMK A01 T10591070  RH  092%=      5-min Rain = 0
KDO1 201008Z 25005KT M06/M07 A303 RMK A01 T10591070  RH  092%=      5-min Rain = 0
KDO1 201009Z 25005KT M06/M07 A303 RMK A01 T10591070  RH  092%=      5-min Rain = 0
KDO1 201010Z 25005KT M06/M07 A303 RMK A01 T10591070  RH  091%=      5-min Rain = 0
KDO1 201011Z 25004KT M06/M07 A303 RMK A01 T10581070  RH  091%=      5-min Rain = 0
KDO1 201012Z 25005KT M06/M07 A303 RMK A01 T10561069  RH  091%=      5-min Rain = 0
KDO1 201013Z 25005KT M06/M07 A303 RMK A01 T10561069  RH  090%=      5-min Rain = 0
KDO1 201014Z 25006KT M06/M07 A303 RMK A01 T10551069  RH  090%=      5-min Rain = 0
KDO1 201015Z 25005KT M06/M07 A303 RMK A01 T10551069  RH  089%=      5-min Rain = 0
KDO1 201016Z 25006KT M05/M07 A303 RMK A01 T10541070  RH  089%=      5-min Rain = 0
KDO1 201017Z 26005KT M05/M07 A303 RMK A01 T10541070  RH  089%=      5-min Rain = 0
KDO1 201018Z 26005KT M05/M07 A3031 RMK A01 T10531069  RH  089%=      5-min Rain = 0
KDO1 201019Z 25006KT M05/M07 A3031 RMK A01 T10521069  RH  088%=      5-min Rain = 0
KDO1 201020Z 25006KT M05/M07 A3031 RMK A01 T10521069  RH  088%=      5-min Rain = 0
KDO1 201021Z 25006KT M05/M07 A3031 RMK A01 T10511069  RH  087%=      5-min Rain = 0
KDO1 201022Z 25005KT M05/M07 A303 RMK A01 T10511069  RH  087%=      5-min Rain = 0
KDO1 201023Z 25005KT M05/M07 A303 RMK A01 T10511069  RH  087%=      5-min Rain = 0
KDO1 201024Z 24005KT M05/M07 A303 RMK A01 T10511069  RH  087%=      5-min Rain = 0
KDO1 201025Z 24004KT M05/M07 A303 RMK A01 T10511069  RH  087%=      5-min Rain = 0
KDO1 201026Z 24005KT M05/M07 A3031 RMK A01 T10511069  RH  087%=      5-min Rain = 0
KDO1 201027Z 24005KT M05/M07 A3031 RMK A01 T10521069  RH  088%=      5-min Rain = 0
KDO1 201028Z 24005KT M05/M07 A303 RMK A01 T10531070  RH  088%=      5-min Rain = 0
KDO1 201029Z 23005KT M05/M07 A303 RMK A01 T10541070  RH  089%=      5-min Rain = 0
KDO1 201030Z 24005KT M05/M07 A303 RMK A01 T10541069  RH  089%=      5-min Rain = 0
KDO1 201031Z 23006KT M05/M07 A303 RMK A01 T10541069  RH  089%=      5-min Rain = 0
KDO1 201032Z 23006KT M06/M07 A303 RMK A01 T10551069  RH  089%=      5-min Rain = 0
KDO1 201033Z 23006KT M06/M07 A303 RMK A01 T10551070  RH  089%=      5-min Rain = 0
KDO1 201034Z 23006KT M06/M07 A303 RMK A01 T10551070  RH  090%=      5-min Rain = 0
KDO1 201035Z 23006KT M06/M07 A303 RMK A01 T10551070  RH  090%=      5-min Rain = 0
KDO1 201036Z 23006KT M06/M07 A303 RMK A01 T10561070  RH  090%=      5-min Rain = 0
KDO1 201037Z 23006KT M06/M07 A303 RMK A01 T10571071  RH  090%=      5-min Rain = 0
KDO1 201038Z 23006KT M06/M07 A303 RMK A01 T10581072  RH  090%=      5-min Rain = 0
KDO1 201039Z 24007KT M06/M07 A303 RMK A01 T10581072  RH  090%=      5-min Rain = 0
KDO1 201040Z 24007KT M06/M07 A303 RMK A01 T10591073  RH  090%=      5-min Rain = 0
KDO1 201041Z 24007KT M06/M07 A303 RMK A01 T10591073  RH  090%=      5-min Rain = 0
KDO1 201042Z 24008KT M06/M07 A303 RMK A01 T10601073  RH  090%=      5-min Rain = 0
KDO1 201043Z 24008KT M06/M07 A303 RMK A01 T10601073  RH  090%=      5-min Rain = 0
KDO1 201044Z 24007KT M06/M07 A303 RMK A01 T10591072  RH  091%=      5-min Rain = 0
KDO1 201045Z 24007KT M06/M07 A303 RMK A01 T10591072  RH  091%=      5-min Rain = 0
KDO1 201046Z 24007KT M06/M07 A303 RMK A01 T10591071  RH  091%=      5-min Rain = 0
KDO1 201047Z 25007KT M06/M07 A303 RMK A01 T10581070  RH  091%=      5-min Rain = 0
KDO1 201048Z 25007KT M06/M07 A303 RMK A01 T10561068  RH  091%=      5-min Rain = 0
KDO1 201049Z 25007KT M05/M07 A303 RMK A01 T10541067  RH  091%=      5-min Rain = 0
KDO1 201050Z 25007KT M05/M07 A303 RMK A01 T10531067  RH  090%=      5-min Rain = 0
KDO1 201051Z 25008KT M05/M07 A303 RMK A01 T10521067  RH  089%=      5-min Rain = 0
KDO1 201052Z 25008KT M05/M07 A303 RMK A01 T10511067  RH  088%=      5-min Rain = 0
KDO1 201053Z 25007KT M05/M07 A303 RMK A01 T10501067  RH  088%=      5-min Rain = 0
KDO1 201054Z 25008KT M05/M07 A303 RMK A01 T10501068  RH  088%=      5-min Rain = 0
KDO1 201055Z 24007KT M05/M07 A303 RMK A01 T10501068  RH  087%=      5-min Rain = 0
KDO1 201056Z 24008KT M05/M07 A303 RMK A01 T10501068  RH  087%=      5-min Rain = 0
KDO1 201057Z 24007KT M05/M07 A303 RMK A01 T10501068  RH  087%=      5-min Rain = 0
KDO1 201058Z 24008KT M05/M07 A303 RMK A01 T10511068  RH  088%=      5-min Rain = 0
KDO1 201059Z 25008KT M05/M07 A303 RMK A01 T10511068  RH  088%=      5-min Rain = 0
KDO1 201100Z 24008KT M05/M07 A303 RMK A01 T10521068  RH  088%=      5-min Rain = 0
KDO1 201101Z 24007KT M05/M07 A303 RMK A01 T10521068  RH  088%=      5-min Rain = 0
KDO1 201102Z 24007KT M05/M07 A3029 RMK A01 T10521068  RH  088%=      5-min Rain = 0
KDO1 201103Z 24007KT M05/M07 A3029 RMK A01 T10531069  RH  089%=      5-min Rain = 0
KDO1 201104Z 24007KT M05/M07 A3029 RMK A01 T10531068  RH  089%=      5-min Rain = 0
KDO1 201105Z 25007KT M05/M07 A3029 RMK A01 T10531069  RH  089%=      5-min Rain = 0
KDO1 201106Z 25007KT M05/M07 A3029 RMK A01 T10531069  RH  089%=      5-min Rain = 0
KDO1 201107Z 24007KT M05/M07 A3029 RMK A01 T10531069  RH  089%=      5-min Rain = 0
KDO1 201108Z 24008KT M05/M07 A3029 RMK A01 T10531069  RH  089%=      5-min Rain = 0
KDO1 201109Z 24008KT M05/M07 A3029 RMK A01 T10531069  RH  089%=      5-min Rain = 0
KDO1 201110Z 24008KT M05/M07 A3029 RMK A01 T10531069  RH  089%=      5-min Rain = 0
KDO1 201111Z 24008KT M05/M07 A3029 RMK A01 T10541069  RH  089%=      5-min Rain = 0
KDO1 201112Z 24008KT M05/M07 A3029 RMK A01 T10541069  RH  089%=      5-min Rain = 0
KDO1 201113Z 24008KT M05/M07 A3029 RMK A01 T10531069  RH  089%=      5-min Rain = 0
KDO1 201114Z 24008KT M05/M07 A3028 RMK A01 T10541069  RH  089%=      5-min Rain = 0
KDO1 201115Z 24007KT M05/M07 A3028 RMK A01 T10541069  RH  089%=      5-min Rain = 0
KDO1 201116Z 24007KT M05/M07 A3028 RMK A01 T10531069  RH  089%=      5-min Rain = 0
KDO1 201117Z 24007KT M05/M07 A3029 RMK A01 T10531068  RH  089%=      5-min Rain = 0
KDO1 201118Z 23007KT M05/M07 A3029 RMK A01 T10531069  RH  089%=      5-min Rain = 0
KDO1 201119Z 23007KT M05/M07 A3029 RMK A01 T10531069  RH  089%=      5-min Rain = 0
KDO1 201120Z 23007KT M05/M07 A3029 RMK A01 T10531069  RH  089%=      5-min Rain = 0
KDO1 201121Z 23006KT M05/M07 A3029 RMK A01 T10521068  RH  088%=      5-min Rain = 0
KDO1 201122Z 23006KT M05/M07 A3029 RMK A01 T10521069  RH  088%=      5-min Rain = 0
KDO1 201123Z 23006KT M05/M07 A3029 RMK A01 T10521069  RH  088%=      5-min Rain = 0
KDO1 201124Z 23007KT M05/M07 A3028 RMK A01 T10531069  RH  088%=      5-min Rain = 0
KDO1 201125Z 23007KT M05/M07 A3028 RMK A01 T10531070  RH  088%=      5-min Rain = 0
KDO1 201126Z 23007KT M05/M07 A3028 RMK A01 T10531070  RH  088%=      5-min Rain = 0
KDO1 201127Z 23007KT M05/M07 A3028 RMK A01 T10531070  RH  088%=      5-min Rain = 0
KDO1 201128Z 23007KT M05/M07 A3028 RMK A01 T10531070  RH  088%=      5-min Rain = 0
KDO1 201129Z 23007KT M05/M07 A3028 RMK A01 T10541071  RH  088%=      5-min Rain = 0
KDO1 201130Z 23006KT M05/M07 A3028 RMK A01 T10541071  RH  088%=      5-min Rain = 0
KDO1 201131Z 23007KT M05/M07 A3028 RMK A01 T10541070  RH  088%=      5-min Rain = 0
KDO1 201132Z 23006KT M05/M07 A3028 RMK A01 T10541071  RH  088%=      5-min Rain = 0
KDO1 201133Z 23007KT M05/M07 A3028 RMK A01 T10541070  RH  088%=      5-min Rain = 0
KDO1 201134Z 23006KT M05/M07 A3028 RMK A01 T10541070  RH  088%=      5-min Rain = 0
KDO1 201135Z 24006KT M05/M07 A3028 RMK A01 T10541070  RH  088%=      5-min Rain = 0
KDO1 201136Z 24006KT M05/M07 A3028 RMK A01 T10541070  RH  088%=      5-min Rain = 0
KDO1 201137Z 24006KT M05/M07 A3028 RMK A01 T10541070  RH  088%=      5-min Rain = 0
KDO1 201138Z 23006KT M05/M07 A3028 RMK A01 T10541070  RH  088%=      5-min Rain = 0
KDO1 201139Z 24005KT M05/M07 A3028 RMK A01 T10541070  RH  088%=      5-min Rain = 0
KDO1 201140Z 24005KT M05/M07 A3028 RMK A01 T10541070  RH  088%=      5-min Rain = 0
KDO1 201141Z 24005KT M05/M07 A3028 RMK A01 T10541071  RH  088%=      5-min Rain = 0
KDO1 201142Z 24005KT M05/M07 A3028 RMK A01 T10531070  RH  088%=      5-min Rain = 0
KDO1 201143Z 24005KT M05/M07 A3028 RMK A01 T10531070  RH  088%=      5-min Rain = 0
KDO1 201144Z 24005KT M05/M07 A3028 RMK A01 T10531070  RH  088%=      5-min Rain = 0
KDO1 201145Z 23005KT M05/M07 A3027 RMK A01 T10531070  RH  088%=      5-min Rain = 0
KDO1 201146Z 23005KT M05/M07 A3027 RMK A01 T10531070  RH  088%=      5-min Rain = 0
KDO1 201147Z 23006KT M05/M07 A3027 RMK A01 T10531070  RH  088%=      5-min Rain = 0
KDO1 201148Z 23006KT M05/M07 A3027 RMK A01 T10531070  RH  087%=      5-min Rain = 0
KDO1 201149Z 23006KT M05/M07 A3027 RMK A01 T10531070  RH  087%=      5-min Rain = 0
KDO1 201150Z 23006KT M05/M07 A3027 RMK A01 T10531070  RH  088%=      5-min Rain = 0
KDO1 201151Z 23006KT M05/M07 A3027 RMK A01 T10531070  RH  088%=      5-min Rain = 0
KDO1 201152Z 24006KT M05/M07 A3027 RMK A01 T10531070  RH  088%=      5-min Rain = 0
KDO1 201153Z 24006KT M05/M07 A3027 RMK A01 T10531070  RH  088%=      5-min Rain = 0
KDO1 201154Z 24006KT M05/M07 A3027 RMK A01 T10531070  RH  088%=      5-min Rain = 0
KDO1 201155Z 24006KT M05/M07 A3027 RMK A01 T10541070  RH  088%=      5-min Rain = 0
KDO1 201156Z 24006KT M05/M07 A3027 RMK A01 T10541070  RH  089%=      5-min Rain = 0
KDO1 201157Z 24006KT M05/M07 A3027 RMK A01 T10541069  RH  089%=      5-min Rain = 0
KDO1 201158Z 24006KT M05/M07 A3027 RMK A01 T10541069  RH  089%=      5-min Rain = 0
KDO1 201159Z 24006KT M05/M07 A3027 RMK A01 T10531069  RH  089%=      5-min Rain = 0
KDO1 201200Z 24006KT M05/M07 A3027 RMK A01 T10531068  RH  089%=      5-min Rain = 0
KDO1 201201Z 25006KT M05/M07 A3027 RMK A01 T10521068  RH  089%=      5-min Rain = 0
KDO1 201202Z 25006KT M05/M07 A3028 RMK A01 T10511067  RH  089%=      5-min Rain = 0
KDO1 201203Z 25006KT M05/M07 A3028 RMK A01 T10501067  RH  088%=      5-min Rain = 0
KDO1 201204Z 25006KT M05/M07 A3028 RMK A01 T10501068  RH  087%=      5-min Rain = 0
KDO1 201205Z 26006KT M05/M07 A3027 RMK A01 T10491068  RH  086%=      5-min Rain = 0
KDO1 201206Z 25006KT M05/M07 A3027 RMK A01 T10471068  RH  085%=      5-min Rain = 0
KDO1 201207Z 25005KT M05/M07 A3027 RMK A01 T10461068  RH  085%=      5-min Rain = 0
KDO1 201208Z 25006KT M05/M07 A3027 RMK A01 T10461069  RH  084%=      5-min Rain = 0
KDO1 201209Z 25007KT M05/M07 A3027 RMK A01 T10451069  RH  083%=      5-min Rain = 0
KDO1 201210Z 25007KT M04/M07 A3027 RMK A01 T10441069  RH  083%=      5-min Rain = 0
KDO1 201211Z 25007KT M04/M07 A3027 RMK A01 T10431070  RH  082%=      5-min Rain = 0
KDO1 201212Z 25008KT M04/M07 A3027 RMK A01 T10431070  RH  081%=      5-min Rain = 0
KDO1 201213Z 25008KT M04/M07 A3027 RMK A01 T10421070  RH  081%=      5-min Rain = 0
KDO1 201214Z 25007KT M04/M07 A3027 RMK A01 T10411070  RH  080%=      5-min Rain = 0
KDO1 201215Z 25007KT M04/M07 A3027 RMK A01 T10411071  RH  080%=      5-min Rain = 0
KDO1 201216Z 25007KT M04/M07 A3027 RMK A01 T10411071  RH  080%=      5-min Rain = 0
KDO1 201217Z 25007KT M04/M07 A3027 RMK A01 T10411071  RH  080%=      5-min Rain = 0
KDO1 201218Z 25007KT M04/M07 A3027 RMK A01 T10411070  RH  080%=      5-min Rain = 0
KDO1 201219Z 25007KT M04/M07 A3027 RMK A01 T10421070  RH  081%=      5-min Rain = 0
KDO1 201220Z 25007KT M04/M07 A3026 RMK A01 T10421070  RH  081%=      5-min Rain = 0
KDO1 201221Z 25007KT M04/M07 A3026 RMK A01 T10421070  RH  081%=      5-min Rain = 0
KDO1 201222Z 25006KT M04/M07 A3026 RMK A01 T10431070  RH  082%=      5-min Rain = 0
KDO1 201223Z 25007KT M04/M07 A3026 RMK A01 T10431069  RH  082%=      5-min Rain = 0
KDO1 201224Z 25006KT M04/M07 A3026 RMK A01 T10441069  RH  082%=      5-min Rain = 0
KDO1 201225Z 25006KT M04/M07 A3026 RMK A01 T10441069  RH  082%=      5-min Rain = 0
KDO1 201226Z 25006KT M04/M07 A3026 RMK A01 T10431070  RH  082%=      5-min Rain = 0
KDO1 201227Z 25006KT M04/M07 A3026 RMK A01 T10431070  RH  082%=      5-min Rain = 0
KDO1 201228Z 25006KT M04/M07 A3026 RMK A01 T10431070  RH  081%=      5-min Rain = 0
KDO1 201229Z 24006KT M04/M07 A3026 RMK A01 T10431070  RH  082%=      5-min Rain = 0
KDO1 201230Z 24006KT M04/M07 A3026 RMK A01 T10431070  RH  082%=      5-min Rain = 0
KDO1 201231Z 24006KT M04/M07 A3026 RMK A01 T10431069  RH  082%=      5-min Rain = 0
KDO1 201232Z 24006KT M04/M07 A3026 RMK A01 T10441069  RH  083%=      5-min Rain = 0
KDO1 201233Z 24006KT M04/M07 A3026 RMK A01 T10441069  RH  083%=      5-min Rain = 0
KDO1 201234Z 24006KT M05/M07 A3026 RMK A01 T10451069  RH  084%=      5-min Rain = 0
KDO1 201235Z 24006KT M05/M07 A3026 RMK A01 T10451068  RH  084%=      5-min Rain = 0
KDO1 201236Z 24006KT M05/M07 A3026 RMK A01 T10461068  RH  084%=      5-min Rain = 0
KDO1 201237Z 24006KT M05/M07 A3026 RMK A01 T10471068  RH  085%=      5-min Rain = 0
KDO1 201238Z 23006KT M05/M07 A3026 RMK A01 T10471068  RH  085%=      5-min Rain = 0
KDO1 201239Z 23005KT M05/M07 A3026 RMK A01 T10471068  RH  085%=      5-min Rain = 0
KDO1 201240Z 23005KT M05/M07 A3026 RMK A01 T10471068  RH  086%=      5-min Rain = 0
KDO1 201241Z 23006KT M05/M07 A3026 RMK A01 T10481068  RH  086%=      5-min Rain = 0
KDO1 201242Z 23006KT M05/M07 A3026 RMK A01 T10481068  RH  086%=      5-min Rain = 0
KDO1 201243Z 23006KT M05/M07 A3026 RMK A01 T10481068  RH  086%=      5-min Rain = 0
KDO1 201244Z 22006KT M05/M07 A3026 RMK A01 T10481069  RH  086%=      5-min Rain = 0
KDO1 201245Z 23006KT M05/M07 A3026 RMK A01 T10491070  RH  085%=      5-min Rain = 0
KDO1 201246Z 22006KT M05/M07 A3026 RMK A01 T10491070  RH  085%=      5-min Rain = 0
KDO1 201247Z 23006KT M05/M07 A3026 RMK A01 T10501071  RH  085%=      5-min Rain = 0
KDO1 201248Z 22006KT M05/M07 A3026 RMK A01 T10501071  RH  085%=      5-min Rain = 0
KDO1 201249Z 22006KT M05/M07 A3026 RMK A01 T10511071  RH  085%=      5-min Rain = 0
KDO1 201250Z 22005KT M05/M07 A3026 RMK A01 T10501071  RH  086%=      5-min Rain = 0
KDO1 201251Z 22005KT M05/M07 A3026 RMK A01 T10501071  RH  086%=      5-min Rain = 0
KDO1 201252Z 22005KT M05/M07 A3027 RMK A01 T10501070  RH  086%=      5-min Rain = 0
KDO1 201253Z 22005KT M05/M07 A3027 RMK A01 T10511071  RH  086%=      5-min Rain = 0
KDO1 201254Z 22005KT M05/M07 A3027 RMK A01 T10511071  RH  086%=      5-min Rain = 0
KDO1 201255Z 22004KT M05/M07 A3027 RMK A01 T10511071  RH  086%=      5-min Rain = 0
KDO1 201256Z 22004KT M05/M07 A3027 RMK A01 T10511071  RH  086%=      5-min Rain = 0
KDO1 201257Z 22004KT M05/M07 A3027 RMK A01 T10521071  RH  086%=      5-min Rain = 0
KDO1 201258Z 22005KT M05/M07 A3027 RMK A01 T10521071  RH  086%=      5-min Rain = 0
KDO1 201259Z 22004KT M05/M07 A3027 RMK A01 T10521071  RH  086%=      5-min Rain = 0
KDO1 201300Z 21004KT M05/M07 A3027 RMK A01 T10521071  RH  086%=      5-min Rain = 0
KDO1 201301Z 21004KT M05/M07 A3027 RMK A01 T10531072  RH  086%=      5-min Rain = 0
KDO1 201302Z 21004KT M05/M07 A3027 RMK A01 T10531072  RH  087%=      5-min Rain = 0
KDO1 201303Z 20004KT M05/M07 A3027 RMK A01 T10531072  RH  087%=      5-min Rain = 0
KDO1 201304Z 20004KT M05/M07 A3026 RMK A01 T10541072  RH  087%=      5-min Rain = 0
KDO1 201305Z 20005KT M06/M07 A3027 RMK A01 T10551072  RH  087%=      5-min Rain = 0
KDO1 201306Z 21005KT M06/M07 A3027 RMK A01 T10551072  RH  088%=      5-min Rain = 0
KDO1 201307Z 21005KT M06/M07 A3027 RMK A01 T10561073  RH  088%=      5-min Rain = 0
KDO1 201308Z 21005KT M06/M07 A3027 RMK A01 T10561073  RH  088%=      5-min Rain = 0
KDO1 201309Z 22005KT M06/M07 A3027 RMK A01 T10571073  RH  088%=      5-min Rain = 0
KDO1 201310Z 22005KT M06/M07 A3026 RMK A01 T10581073  RH  089%=      5-min Rain = 0
KDO1 201311Z 22005KT M06/M07 A3026 RMK A01 T10581074  RH  089%=      5-min Rain = 0
KDO1 201312Z 22006KT M06/M07 A3026 RMK A01 T10591074  RH  089%=      5-min Rain = 0
KDO1 201313Z 22006KT M06/M07 A3026 RMK A01 T10591074  RH  089%=      5-min Rain = 0
KDO1 201314Z 22006KT M06/M08 A3027 RMK A01 T10601075  RH  089%=      5-min Rain = 0
KDO1 201315Z 22007KT M06/M08 A3027 RMK A01 T10601075  RH  089%=      5-min Rain = 0
KDO1 201316Z 22007KT M06/M08 A3026 RMK A01 T10611075  RH  090%=      5-min Rain = 0
KDO1 201317Z 22007KT M06/M08 A3026 RMK A01 T10611075  RH  090%=      5-min Rain = 0
KDO1 201318Z 22007KT M06/M08 A3026 RMK A01 T10621075  RH  090%=      5-min Rain = 0
KDO1 201319Z 22007KT M06/M08 A3026 RMK A01 T10621076  RH  090%=      5-min Rain = 0
KDO1 201320Z 22007KT M06/M08 A3026 RMK A01 T10631076  RH  090%=      5-min Rain = 0
KDO1 201321Z 22007KT M06/M08 A3026 RMK A01 T10631076  RH  090%=      5-min Rain = 0
KDO1 201322Z 22006KT M06/M08 A3026 RMK A01 T10631076  RH  090%=      5-min Rain = 0
KDO1 201323Z 22006KT M06/M08 A3026 RMK A01 T10631076  RH  091%=      5-min Rain = 0
KDO1 201324Z 23006KT M06/M08 A3026 RMK A01 T10641076  RH  091%=      5-min Rain = 0
KDO1 201325Z 23006KT M06/M08 A3026 RMK A01 T10641077  RH  091%=      5-min Rain = 0
KDO1 201326Z 23007KT M06/M08 A3026 RMK A01 T10641077  RH  091%=      5-min Rain = 0
KDO1 201327Z 23007KT M07/M08 A3026 RMK A01 T10651078  RH  091%=      5-min Rain = 0
KDO1 201328Z 23007KT M07/M08 A3026 RMK A01 T10651078  RH  091%=      5-min Rain = 0
KDO1 201329Z 23007KT M07/M08 A3026 RMK A01 T10651078  RH  091%=      5-min Rain = 0
KDO1 201330Z 22007KT M07/M08 A3026 RMK A01 T10651077  RH  091%=      5-min Rain = 0
KDO1 201331Z 22008KT M07/M08 A3026 RMK A01 T10651077  RH  092%=      5-min Rain = 0
KDO1 201332Z 22008KT M07/M08 A3026 RMK A01 T10661077  RH  092%=      5-min Rain = 0
KDO1 201333Z 22008KT M07/M08 A3026 RMK A01 T10661077  RH  092%=      5-min Rain = 0
KDO1 201334Z 23008KT M07/M08 A3026 RMK A01 T10651076  RH  092%=      5-min Rain = 0
KDO1 201335Z 23008KT M07/M08 A3026 RMK A01 T10651076  RH  092%=      5-min Rain = 0
KDO1 201336Z 23008KT M06/M08 A3026 RMK A01 T10641075  RH  092%=      5-min Rain = 0
KDO1 201337Z 23008KT M06/M08 A3026 RMK A01 T10631075  RH  091%=      5-min Rain = 0
KDO1 201338Z 23007KT M06/M07 A3026 RMK A01 T10621074  RH  091%=      5-min Rain = 0
KDO1 201339Z 23007KT M06/M07 A3026 RMK A01 T10621074  RH  091%=      5-min Rain = 0
KDO1 201340Z 23006KT M06/M07 A3026 RMK A01 T10611074  RH  091%=      5-min Rain = 0
KDO1 201341Z 23006KT M06/M07 A3026 RMK A01 T10601073  RH  091%=      5-min Rain = 0
KDO1 201342Z 23006KT M06/M07 A3026 RMK A01 T10601074  RH  090%=      5-min Rain = 0
KDO1 201343Z 23006KT M06/M07 A3026 RMK A01 T10601074  RH  090%=      5-min Rain = 0
KDO1 201344Z 23006KT M06/M07 A3027 RMK A01 T10601074  RH  090%=      5-min Rain = 0
KDO1 201345Z 23006KT M06/M08 A3026 RMK A01 T10601075  RH  089%=      5-min Rain = 0
KDO1 201346Z 23006KT M06/M08 A3026 RMK A01 T10591075  RH  089%=      5-min Rain = 0
KDO1 201347Z 22006KT M06/M08 A3026 RMK A01 T10591075  RH  089%=      5-min Rain = 0
KDO1 201348Z 22006KT M06/M08 A3027 RMK A01 T10601075  RH  089%=      5-min Rain = 0
KDO1 201349Z 23006KT M06/M08 A3027 RMK A01 T10601075  RH  089%=      5-min Rain = 0
KDO1 201350Z 22006KT M06/M08 A3027 RMK A01 T10601075  RH  089%=      5-min Rain = 0
KDO1 201351Z 22006KT M06/M08 A3027 RMK A01 T10601075  RH  089%=      5-min Rain = 0
KDO1 201352Z 22006KT M06/M08 A3027 RMK A01 T10601075  RH  089%=      5-min Rain = 0
KDO1 201353Z 22006KT M06/M08 A3027 RMK A01 T10611075  RH  089%=      5-min Rain = 0
KDO1 201354Z 22005KT M06/M08 A3027 RMK A01 T10601075  RH  089%=      5-min Rain = 0
KDO1 201355Z 21005KT M06/M08 A3026 RMK A01 T10601075  RH  089%=      5-min Rain = 0
KDO1 201356Z 21005KT M06/M08 A3026 RMK A01 T10601075  RH  089%=      5-min Rain = 0
KDO1 201357Z 20005KT M06/M08 A3026 RMK A01 T10601075  RH  089%=      5-min Rain = 0
KDO1 201358Z 20005KT M06/M08 A3026 RMK A01 T10601075  RH  089%=      5-min Rain = 0
KDO1 201359Z 20005KT M06/M08 A3026 RMK A01 T10601075  RH  089%=      5-min Rain = 0
KDO1 201400Z 20005KT M06/M08 A3026 RMK A01 T10601075  RH  089%=      5-min Rain = 0
KDO1 201401Z 20005KT M06/M08 A3026 RMK A01 T10601075  RH  089%=      5-min Rain = 0
KDO1 201402Z 21005KT M06/M07 A3026 RMK A01 T10591074  RH  089%=      5-min Rain = 0
KDO1 201403Z 21006KT M06/M07 A3026 RMK A01 T10581073  RH  089%=      5-min Rain = 0
KDO1 201404Z 22006KT M06/M07 A3026 RMK A01 T10571073  RH  089%=      5-min Rain = 0
KDO1 201405Z 22006KT M06/M07 A3026 RMK A01 T10561073  RH  088%=      5-min Rain = 0
KDO1 201406Z 22006KT M06/M07 A3026 RMK A01 T10551073  RH  087%=      5-min Rain = 0
KDO1 201407Z 22006KT M05/M07 A3026 RMK A01 T10541073  RH  087%=      5-min Rain = 0
KDO1 201408Z 22006KT M05/M07 A3026 RMK A01 T10531073  RH  086%=      5-min Rain = 0
KDO1 201409Z 22006KT M05/M07 A3026 RMK A01 T10531073  RH  086%=      5-min Rain = 0
KDO1 201410Z 22005KT M05/M07 A3026 RMK A01 T10531073  RH  086%=      5-min Rain = 0
KDO1 201411Z 21005KT M05/M07 A3026 RMK A01 T10531073  RH  086%=      5-min Rain = 0
KDO1 201412Z 21005KT M05/M07 A3026 RMK A01 T10531073  RH  086%=      5-min Rain = 0
KDO1 201413Z 21005KT M05/M07 A3026 RMK A01 T10521072  RH  086%=      5-min Rain = 0
KDO1 201414Z 22005KT M05/M07 A3026 RMK A01 T10521072  RH  086%=      5-min Rain = 0
KDO1 201415Z 22005KT M05/M07 A3026 RMK A01 T10521071  RH  086%=      5-min Rain = 0
KDO1 201416Z 21005KT M05/M07 A3026 RMK A01 T10521072  RH  086%=      5-min Rain = 0
KDO1 201417Z 21005KT M05/M07 A3026 RMK A01 T10511071  RH  086%=      5-min Rain = 0
KDO1 201418Z 21004KT M05/M07 A3026 RMK A01 T10511071  RH  086%=      5-min Rain = 0
KDO1 201419Z 21004KT M05/M07 A3026 RMK A01 T10511071  RH  086%=      5-min Rain = 0
KDO1 201420Z 21004KT M05/M07 A3026 RMK A01 T10511071  RH  085%=      5-min Rain = 0
KDO1 201421Z 21004KT M05/M07 A3026 RMK A01 T10501071  RH  085%=      5-min Rain = 0
KDO1 201422Z 21004KT M05/M07 A3026 RMK A01 T10501071  RH  085%=      5-min Rain = 0
KDO1 201423Z 21004KT M05/M07 A3026 RMK A01 T10491070  RH  085%=      5-min Rain = 0
KDO1 201424Z 20003KT M05/M07 A3026 RMK A01 T10491070  RH  085%=      5-min Rain = 0
KDO1 201425Z 20003KT M05/M07 A3027 RMK A01 T10481068  RH  086%=      5-min Rain = 0
KDO1 201426Z 19003KT M05/M07 A3027 RMK A01 T10471067  RH  086%=      5-min Rain = 0
KDO1 201427Z 19003KT M05/M07 A3027 RMK A01 T10461067  RH  085%=      5-min Rain = 0
KDO1 201428Z 18002KT M05/M07 A3027 RMK A01 T10461068  RH  085%=      5-min Rain = 0
KDO1 201429Z 17001KT M05/M07 A3026 RMK A01 T10451068  RH  084%=      5-min Rain = 0
KDO1 201430Z 18001KT M05/M07 A3026 RMK A01 T10451068  RH  084%=      5-min Rain = 0
KDO1 201431Z 17001KT M04/M07 A3026 RMK A01 T10441066  RH  085%=      5-min Rain = 0
KDO1 201432Z 17002KT M04/M07 A3026 RMK A01 T10431065  RH  085%=      5-min Rain = 0
KDO1 201433Z 17002KT M04/M07 A3026 RMK A01 T10431066  RH  084%=      5-min Rain = 0
KDO1 201434Z 17003KT M04/M07 A3026 RMK A01 T10431067  RH  083%=      5-min Rain = 0
KDO1 201435Z 18002KT M04/M07 A3026 RMK A01 T10431067  RH  083%=      5-min Rain = 0
KDO1 201436Z 18003KT M04/M07 A3026 RMK A01 T10431066  RH  084%=      5-min Rain = 0
KDO1 201437Z 18003KT M04/M06 A3026 RMK A01 T10411063  RH  085%=      5-min Rain = 0
KDO1 201438Z 18003KT M04/M06 A3026 RMK A01 T10411064  RH  084%=      5-min Rain = 0
KDO1 201439Z 19004KT M04/M06 A3026 RMK A01 T10401063  RH  084%=      5-min Rain = 0
KDO1 201440Z 18003KT M04/M06 A3026 RMK A01 T10401064  RH  083%=      5-min Rain = 0
KDO1 201441Z 18004KT M04/M06 A3026 RMK A01 T10391063  RH  083%=      5-min Rain = 0
KDO1 201442Z 18003KT M04/M06 A3026 RMK A01 T10391063  RH  083%=      5-min Rain = 0
KDO1 201443Z 19003KT M04/M06 A3026 RMK A01 T10381061  RH  084%=      5-min Rain = 0
KDO1 201444Z 18003KT M04/M06 A3026 RMK A01 T10381062  RH  084%=      5-min Rain = 0
KDO1 201445Z 18004KT M04/M06 A3026 RMK A01 T10381061  RH  084%=      5-min Rain = 0
KDO1 201446Z 19005KT M04/M06 A3026 RMK A01 T10381062  RH  083%=      5-min Rain = 0
KDO1 201447Z 19004KT M04/M06 A3026 RMK A01 T10381062  RH  083%=      5-min Rain = 0
KDO1 201448Z 19004KT M04/M06 A3026 RMK A01 T10371061  RH  083%=      5-min Rain = 0
KDO1 201449Z 18004KT M04/M06 A3026 RMK A01 T10371060  RH  084%=      5-min Rain = 0
KDO1 201450Z 19005KT M04/M06 A3026 RMK A01 T10361059  RH  084%=      5-min Rain = 0
KDO1 201451Z 19005KT M04/M06 A3026 RMK A01 T10351060  RH  083%=      5-min Rain = 0
KDO1 201452Z 19004KT M04/M06 A3026 RMK A01 T10351061  RH  082%=      5-min Rain = 0
KDO1 201453Z 18004KT M04/M06 A3026 RMK A01 T10351059  RH  083%=      5-min Rain = 0
KDO1 201454Z 18004KT M03/M06 A3026 RMK A01 T10331057  RH  084%=      5-min Rain = 0
KDO1 201455Z 19005KT M03/M06 A3026 RMK A01 T10321057  RH  083%=      5-min Rain = 0
KDO1 201456Z 18005KT M03/M06 A3026 RMK A01 T10321059  RH  082%=      5-min Rain = 0
KDO1 201457Z 18006KT M03/M06 A3026 RMK A01 T10321059  RH  081%=      5-min Rain = 0
KDO1 201458Z 19005KT M03/M06 A3026 RMK A01 T10311059  RH  081%=      5-min Rain = 0
KDO1 201459Z 18005KT M03/M06 A3026 RMK A01 T10311058  RH  082%=      5-min Rain = 0
KDO1 201500Z 18006KT M03/M06 A3026 RMK A01 T10301058  RH  081%=      5-min Rain = 0
KDO1 201501Z 19006KT M03/M06 A3026 RMK A01 T10291058  RH  081%=      5-min Rain = 0
KDO1 201502Z 19006KT M03/M06 A3026 RMK A01 T10291059  RH  080%=      5-min Rain = 0
KDO1 201503Z 19006KT M03/M06 A3025 RMK A01 T10291060  RH  079%=      5-min Rain = 0
KDO1 201504Z 18006KT M03/M06 A3025 RMK A01 T10291060  RH  079%=      5-min Rain = 0
KDO1 201505Z 19007KT M03/M06 A3025 RMK A01 T10281059  RH  079%=      5-min Rain = 0
KDO1 201506Z 19006KT M03/M06 A3025 RMK A01 T10281058  RH  080%=      5-min Rain = 0
KDO1 201507Z 19007KT M03/M06 A3025 RMK A01 T10271057  RH  080%=      5-min Rain = 0
KDO1 201508Z 19007KT M03/M06 A3025 RMK A01 T10271059  RH  079%=      5-min Rain = 0
KDO1 201509Z 18007KT M03/M06 A3025 RMK A01 T10271059  RH  079%=      5-min Rain = 0
KDO1 201510Z 18007KT M03/M06 A3025 RMK A01 T10271059  RH  079%=      5-min Rain = 0
KDO1 201511Z 19006KT M03/M06 A3025 RMK A01 T10261057  RH  079%=      5-min Rain = 0
KDO1 201512Z 18006KT M03/M06 A3025 RMK A01 T10261057  RH  079%=      5-min Rain = 0
KDO1 201513Z 18007KT M03/M06 A3025 RMK A01 T10251056  RH  079%=      5-min Rain = 0
KDO1 201514Z 18006KT M03/M06 A3025 RMK A01 T10251056  RH  079%=      5-min Rain = 0
KDO1 201515Z 19006KT M02/M06 A3025 RMK A01 T10241056  RH  079%=      5-min Rain = 0
KDO1 201516Z 19004KT M02/M06 A3025 RMK A01 T10241056  RH  079%=      5-min Rain = 0
KDO1 201517Z 19006KT M02/M06 A3025 RMK A01 T10231055  RH  079%=      5-min Rain = 0
KDO1 201518Z 19005KT M02/M06 A3025 RMK A01 T10231055  RH  079%=      5-min Rain = 0
KDO1 201519Z 19007KT M02/M05 A3025 RMK A01 T10231054  RH  079%=      5-min Rain = 0
KDO1 201520Z 19006KT M02/M05 A3025 RMK A01 T10231053  RH  079%=      5-min Rain = 0
KDO1 201521Z 19006KT M02/M05 A3025 RMK A01 T10221053  RH  079%=      5-min Rain = 0
KDO1 201522Z 19005KT M02/M05 A3025 RMK A01 T10221054  RH  079%=      5-min Rain = 0
KDO1 201523Z 19004KT M02/M05 A3025 RMK A01 T10221052  RH  079%=      5-min Rain = 0
KDO1 201524Z 18004KT M02/M05 A3025 RMK A01 T10211051  RH  080%=      5-min Rain = 0
KDO1 201525Z 19004KT M02/M05 A3025 RMK A01 T10201051  RH  079%=      5-min Rain = 0
KDO1 201526Z 19004KT M02/M05 A3025 RMK A01 T10191050  RH  079%=      5-min Rain = 0
KDO1 201527Z 18005KT M02/M05 A3025 RMK A01 T10191050  RH  079%=      5-min Rain = 0
KDO1 201528Z 18004KT M02/M05 A3025 RMK A01 T10181050  RH  079%=      5-min Rain = 0
KDO1 201529Z 19004KT M02/M05 A3025 RMK A01 T10171050  RH  078%=      5-min Rain = 0
KDO1 201530Z 18003KT M02/M05 A3025 RMK A01 T10161050  RH  078%=      5-min Rain = 0
KDO1 201531Z 19003KT M02/M05 A3025 RMK A01 T10161049  RH  078%=      5-min Rain = 0
KDO1 201532Z 19004KT M02/M05 A3025 RMK A01 T10151049  RH  077%=      5-min Rain = 0
KDO1 201533Z 20004KT M02/M05 A3025 RMK A01 T10151052  RH  076%=      5-min Rain = 0
KDO1 201534Z 20005KT M02/M05 A3025 RMK A01 T10151052  RH  076%=      5-min Rain = 0
KDO1 201535Z 19004KT M02/M05 A3025 RMK A01 T10151052  RH  076%=      5-min Rain = 0
KDO1 201536Z 20004KT M01/M05 A3025 RMK A01 T10141052  RH  075%=      5-min Rain = 0
KDO1 201537Z 19003KT M01/M05 A3025 RMK A01 T10141052  RH  075%=      5-min Rain = 0
KDO1 201538Z 19003KT M01/M05 A3025 RMK A01 T10131051  RH  075%=      5-min Rain = 0
KDO1 201539Z 19003KT M01/M05 A3025 RMK A01 T10131051  RH  075%=      5-min Rain = 0
KDO1 201540Z 19003KT M01/M05 A3025 RMK A01 T10131050  RH  076%=      5-min Rain = 0
KDO1 201541Z 19002KT M01/M05 A3025 RMK A01 T10131052  RH  075%=      5-min Rain = 0
KDO1 201542Z 20002KT M01/M05 A3025 RMK A01 T10121050  RH  075%=      5-min Rain = 0
KDO1 201543Z 20003KT M01/M05 A3025 RMK A01 T10111050  RH  075%=      5-min Rain = 0
KDO1 201544Z 19002KT M01/M05 A3026 RMK A01 T10121051  RH  074%=      5-min Rain = 0
KDO1 201545Z 17002KT M01/M05 A3026 RMK A01 T10111052  RH  074%=      5-min Rain = 0
KDO1 201546Z 18002KT M01/M05 A3025 RMK A01 T10111051  RH  075%=      5-min Rain = 0
KDO1 201547Z 18003KT M01/M05 A3025 RMK A01 T10101050  RH  075%=      5-min Rain = 0
KDO1 201548Z 17002KT M01/M05 A3025 RMK A01 T10091049  RH  075%=      5-min Rain = 0
KDO1 201549Z 18002KT M01/M05 A3025 RMK A01 T10081049  RH  074%=      5-min Rain = 0
KDO1 201550Z 18002KT M01/M05 A3025 RMK A01 T10081049  RH  074%=      5-min Rain = 0
KDO1 201551Z 21002KT M01/M05 A3025 RMK A01 T10071048  RH  074%=      5-min Rain = 0
KDO1 201552Z 20002KT M01/M05 A3025 RMK A01 T10071047  RH  074%=      5-min Rain = 0
KDO1 201553Z 19002KT M01/M05 A3025 RMK A01 T10061048  RH  073%=      5-min Rain = 0
KDO1 201554Z 21003KT M01/M05 A3025 RMK A01 T10051046  RH  074%=      5-min Rain = 0
KDO1 201555Z 20003KT M00/M05 A3025 RMK A01 T10041045  RH  074%=      5-min Rain = 0
KDO1 201556Z 20003KT M00/M05 A3026 RMK A01 T10031045  RH  073%=      5-min Rain = 0
KDO1 201557Z 19003KT M00/M05 A3026 RMK A01 T10031046  RH  073%=      5-min Rain = 0
KDO1 201558Z 18004KT M00/M05 A3026 RMK A01 T10021046  RH  072%=      5-min Rain = 0
KDO1 201559Z 18004KT M00/M05 A3026 RMK A01 T10021046  RH  072%=      5-min Rain = 0
KDO1 201600Z 19004KT M00/M05 A3026 RMK A01 T10011046  RH  072%=      5-min Rain = 0
KDO1 201601Z 19003KT 00/05 A3026 RMK A01 T00-00-46  RH  071%=      5-min Rain = 0
KDO1 201602Z 19003KT 00/M05 A3026 RMK A01 T00011045  RH  071%=      5-min Rain = 0
KDO1 201603Z 19004KT 00/M05 A3026 RMK A01 T00021045  RH  071%=      5-min Rain = 0
KDO1 201604Z 19003KT 00/M05 A3026 RMK A01 T00021046  RH  070%=      5-min Rain = 0
KDO1 201605Z 18004KT 00/M05 A3025 RMK A01 T00031046  RH  070%=      5-min Rain = 0
KDO1 201606Z 18004KT 00/M05 A3025 RMK A01 T00041046  RH  069%=      5-min Rain = 0
KDO1 201607Z 19004KT 00/M05 A3025 RMK A01 T00041046  RH  069%=      5-min Rain = 0
KDO1 201608Z 19004KT 01/M05 A3025 RMK A01 T00051046  RH  069%=      5-min Rain = 0
KDO1 201609Z 19004KT 01/M05 A3025 RMK A01 T00061045  RH  069%=      5-min Rain = 0
KDO1 201610Z 19004KT 01/M04 A3025 RMK A01 T00071044  RH  069%=      5-min Rain = 0
KDO1 201611Z 18005KT 01/M04 A3025 RMK A01 T00081044  RH  069%=      5-min Rain = 0
KDO1 201612Z 18004KT 01/M04 A3025 RMK A01 T00081044  RH  068%=      5-min Rain = 0
KDO1 201613Z 19005KT 01/M05 A3025 RMK A01 T00091045  RH  067%=      5-min Rain = 0
KDO1 201614Z 19005KT 01/M04 A3025 RMK A01 T00101044  RH  067%=      5-min Rain = 0
KDO1 201615Z 20004KT 01/M05 A3025 RMK A01 T00101045  RH  067%=      5-min Rain = 0
KDO1 201616Z 19005KT 01/M04 A3025 RMK A01 T00111043  RH  068%=      5-min Rain = 0
KDO1 201617Z 18006KT 01/M04 A3025 RMK A01 T00121042  RH  067%=      5-min Rain = 0
KDO1 201618Z 18007KT 01/M04 A3025 RMK A01 T00141041  RH  067%=      5-min Rain = 0
KDO1 201619Z 18005KT 02/M04 A3025 RMK A01 T00161041  RH  066%=      5-min Rain = 0
KDO1 201620Z 18006KT 02/M04 A3025 RMK A01 T00171042  RH  065%=      5-min Rain = 0
KDO1 201621Z 18007KT 02/M04 A3025 RMK A01 T00181044  RH  064%=      5-min Rain = 0
KDO1 201622Z 17007KT 02/M05 A3025 RMK A01 T00181045  RH  063%=      5-min Rain = 0
KDO1 201623Z 18006KT 02/M05 A3025 RMK A01 T00181045  RH  063%=      5-min Rain = 0
KDO1 201624Z 17005KT 02/M04 A3025 RMK A01 T00191044  RH  063%=      5-min Rain = 0
KDO1 201625Z 19007KT 02/M04 A3025 RMK A01 T00211042  RH  063%=      5-min Rain = 0
KDO1 201626Z 19006KT 02/M04 A3025 RMK A01 T00221044  RH  062%=      5-min Rain = 0
KDO1 201627Z 19007KT 02/M04 A3025 RMK A01 T00221043  RH  062%=      5-min Rain = 0
KDO1 201628Z 19008KT 02/M04 A3025 RMK A01 T00211044  RH  062%=      5-min Rain = 0
KDO1 201629Z 19008KT 02/M05 A3025 RMK A01 T00211045  RH  062%=      5-min Rain = 0
KDO1 201630Z 18007KT 02/M05 A3025 RMK A01 T00211045  RH  062%=      5-min Rain = 0
KDO1 201631Z 18008KT 02/M05 A3025 RMK A01 T00211045  RH  062%=      5-min Rain = 0
KDO1 201632Z 18008KT 02/M05 A3025 RMK A01 T00211045  RH  061%=      5-min Rain = 0
KDO1 201633Z 17007KT 02/M04 A3025 RMK A01 T00231042  RH  062%=      5-min Rain = 0
KDO1 201634Z 16007KT 02/M04 A3025 RMK A01 T00231042  RH  062%=      5-min Rain = 0
KDO1 201635Z 16009KT 02/M04 A3025 RMK A01 T00241043  RH  061%=      5-min Rain = 0
KDO1 201636Z 16006KT 02/M04 A3025 RMK A01 T00241044  RH  061%=      5-min Rain = 0
KDO1 201637Z 16007KT 03/M04 A3025 RMK A01 T00251041  RH  062%=      5-min Rain = 0
KDO1 201638Z 16008KT 03/M04 A3025 RMK A01 T00261044  RH  060%=      5-min Rain = 0
KDO1 201639Z 16006KT 03/M04 A3025 RMK A01 T00261042  RH  061%=      5-min Rain = 0
KDO1 201640Z 15008KT 03/M04 A3025 RMK A01 T00281041  RH  060%=      5-min Rain = 0
KDO1 201641Z 16006KT 03/M04 A3025 RMK A01 T00281044  RH  059%=      5-min Rain = 0
KDO1 201642Z 16009KT 03/M04 A3025 RMK A01 T00281043  RH  059%=      5-min Rain = 0
KDO1 201643Z 17008KT 03/M05 A3024 RMK A01 T00281045  RH  059%=      5-min Rain = 0
KDO1 201644Z 17007KT 03/M05 A3024 RMK A01 T00281045  RH  059%=      5-min Rain = 0
KDO1 201645Z 18008KT 03/M04 A3024 RMK A01 T00281044  RH  059%=      5-min Rain = 0
KDO1 201646Z 16006KT 03/M04 A3024 RMK A01 T00301043  RH  059%=      5-min Rain = 0
KDO1 201647Z 16007KT 03/M04 A3024 RMK A01 T00321041  RH  059%=      5-min Rain = 0
KDO1 201648Z 18008KT 03/M04 A3024 RMK A01 T00331043  RH  058%=      5-min Rain = 0
KDO1 201649Z 17007KT 03/M04 A3024 RMK A01 T00331044  RH  057%=      5-min Rain = 0
KDO1 201650Z 16008KT 03/M04 A3024 RMK A01 T00341041  RH  058%=      5-min Rain = 0
KDO1 201651Z 16009KT 04/M04 A3024 RMK A01 T00351042  RH  057%=      5-min Rain = 0
KDO1 201652Z 17007KT 04/M04 A3024 RMK A01 T00351043  RH  056%=      5-min Rain = 0
KDO1 201653Z 17007KT 04/M04 A3024 RMK A01 T00351041  RH  057%=      5-min Rain = 0
KDO1 201654Z 17008KT 04/M04 A3024 RMK A01 T00371041  RH  057%=      5-min Rain = 0
KDO1 201655Z 17010KT 04/M04 A3024 RMK A01 T00391040  RH  056%=      5-min Rain = 0
KDO1 201656Z 17010KT 04/M04 A3024 RMK A01 T00401042  RH  055%=      5-min Rain = 0
KDO1 201657Z 18010KT 04/M04 A3024 RMK A01 T00411042  RH  055%=      5-min Rain = 0
KDO1 201658Z 19010KT 04/M04 A3024 RMK A01 T00431041  RH  055%=      5-min Rain = 0
KDO1 201659Z 20012KT 05/M04 A3024 RMK A01 T00451042  RH  053%=      5-min Rain = 0
KDO1 201700Z 19012KT 05/M04 A3024 RMK A01 T00451044  RH  053%=      5-min Rain = 0
KDO1 201701Z 19012KT 04/M05 A3024 RMK A01 T00441045  RH  052%=      5-min Rain = 0
KDO1 201702Z 18009KT 04/M05 A3024 RMK A01 T00431046  RH  052%=      5-min Rain = 0
KDO1 201703Z 17011KT 05/M04 A3024 RMK A01 T00451042  RH  053%=      5-min Rain = 0
KDO1 201704Z 17011KT 05/M04 A3024 RMK A01 T00471044  RH  052%=      5-min Rain = 0
KDO1 201705Z 18012KT 05/M05 A3024 RMK A01 T00471045  RH  051%=      5-min Rain = 0
KDO1 201706Z 18011KT 05/M05 A3024 RMK A01 T00461046  RH  051%=      5-min Rain = 0
KDO1 201707Z 18011KT 05/M05 A3024 RMK A01 T00461045  RH  051%=      5-min Rain = 0
KDO1 201708Z 18012KT 05/M05 A3024 RMK A01 T00471045  RH  051%=      5-min Rain = 0
KDO1 201709Z 18010KT 05/M05 A3023 RMK A01 T00481045  RH  051%=      5-min Rain = 0
KDO1 201710Z 18011KT 05/M05 A3023 RMK A01 T00481046  RH  050%=      5-min Rain = 0
KDO1 201711Z 18010KT 05/M05 A3023 RMK A01 T00481045  RH  051%=      5-min Rain = 0
KDO1 201712Z 17009KT 05/M04 A3023 RMK A01 T00501041  RH  052%=      5-min Rain = 0
KDO1 201713Z 17011KT 05/M04 A3023 RMK A01 T00521043  RH  050%=      5-min Rain = 0
KDO1 201714Z 17009KT 05/M05 A3023 RMK A01 T00521045  RH  050%=      5-min Rain = 0
KDO1 201715Z 18009KT 05/M04 A3023 RMK A01 T00521043  RH  050%=      5-min Rain = 0
KDO1 201716Z 18011KT 05/M04 A3023 RMK A01 T00531043  RH  050%=      5-min Rain = 0
KDO1 201717Z 18011KT 05/M04 A3023 RMK A01 T00531044  RH  050%=      5-min Rain = 0
KDO1 201718Z 19013KT 05/M05 A3023 RMK A01 T00531045  RH  049%=      5-min Rain = 0
KDO1 201719Z 19013KT 05/M05 A3023 RMK A01 T00531045  RH  049%=      5-min Rain = 0
KDO1 201720Z 18010KT 05/M05 A3023 RMK A01 T00521046  RH  049%=      5-min Rain = 0
KDO1 201721Z 18011G16KT 05/M04 A3023 RMK A01 T00541043  RH  050%=      5-min Rain = 0
KDO1 201722Z 18014KT 06/M04 A3022 RMK A01 T00571043  RH  049%=      5-min Rain = 0
KDO1 201723Z 19012KT 06/M05 A3022 RMK A01 T00571045  RH  048%=      5-min Rain = 0
KDO1 201724Z 18013KT 06/M04 A3022 RMK A01 T00571043  RH  049%=      5-min Rain = 0
KDO1 201725Z 19011KT 06/M04 A3022 RMK A01 T00571044  RH  048%=      5-min Rain = 0
KDO1 201726Z 19014KT 06/M04 A3022 RMK A01 T00571044  RH  048%=      5-min Rain = 0
KDO1 201727Z 18013KT 06/M05 A3022 RMK A01 T00561045  RH  048%=      5-min Rain = 0
KDO1 201728Z 19012KT 06/M05 A3022 RMK A01 T00551046  RH  048%=      5-min Rain = 0
KDO1 201729Z 18011KT 06/M04 A3022 RMK A01 T00561042  RH  049%=      5-min Rain = 0
KDO1 201730Z 18010KT 06/M04 A3022 RMK A01 T00571044  RH  048%=      5-min Rain = 0
KDO1 201731Z 18013KT 06/M04 A3023 RMK A01 T00571043  RH  048%=      5-min Rain = 0
KDO1 201732Z 19012KT 06/M05 A3023 RMK A01 T00561046  RH  048%=      5-min Rain = 0
KDO1 201733Z 19012KT 06/M05 A3023 RMK A01 T00561045  RH  048%=      5-min Rain = 0
KDO1 201734Z 18013KT 06/M05 A3023 RMK A01 T00551046  RH  048%=      5-min Rain = 0
KDO1 201735Z 19011KT 06/M04 A3023 RMK A01 T00551044  RH  049%=      5-min Rain = 0
KDO1 201736Z 18009KT 06/M04 A3023 RMK A01 T00571043  RH  049%=      5-min Rain = 0
KDO1 201737Z 18012KT 06/M04 A3023 RMK A01 T00581042  RH  048%=      5-min Rain = 0
KDO1 201738Z 18010KT 06/M05 A3022 RMK A01 T00581045  RH  047%=      5-min Rain = 0
KDO1 201739Z 18010KT 06/M05 A3022 RMK A01 T00571045  RH  048%=      5-min Rain = 0
KDO1 201740Z 17011KT 06/M04 A3022 RMK A01 T00581044  RH  048%=      5-min Rain = 0
KDO1 201741Z 18013KT 06/M04 A3022 RMK A01 T00591044  RH  047%=      5-min Rain = 0
KDO1 201742Z 18011KT 06/M05 A3022 RMK A01 T00591045  RH  047%=      5-min Rain = 0
KDO1 201743Z 17011KT 06/M05 A3022 RMK A01 T00581045  RH  047%=      5-min Rain = 0
KDO1 201744Z 18012KT 06/M04 A3022 RMK A01 T00591044  RH  048%=      5-min Rain = 0
KDO1 201745Z 18011KT 06/M04 A3022 RMK A01 T00601043  RH  048%=      5-min Rain = 0
KDO1 201746Z 18012KT 06/M04 A3022 RMK A01 T00621043  RH  047%=      5-min Rain = 0
KDO1 201747Z 18011KT 06/M04 A3022 RMK A01 T00621042  RH  047%=      5-min Rain = 0
KDO1 201748Z 18013KT 06/M04 A3022 RMK A01 T00641041  RH  047%=      5-min Rain = 0
KDO1 201749Z 17011KT 06/M04 A3022 RMK A01 T00641042  RH  047%=      5-min Rain = 0
KDO1 201750Z 19009KT 06/M04 A3022 RMK A01 T00641042  RH  047%=      5-min Rain = 0
KDO1 201751Z 19011KT 07/M04 A3022 RMK A01 T00661039  RH  047%=      5-min Rain = 0
KDO1 201752Z 19012KT 07/M04 A3022 RMK A01 T00671039  RH  047%=      5-min Rain = 0
KDO1 201753Z 20012KT 07/M04 A3022 RMK A01 T00671041  RH  046%=      5-min Rain = 0
KDO1 201754Z 19011KT 07/M04 A3022 RMK A01 T00651042  RH  046%=      5-min Rain = 0
KDO1 201755Z 19012KT 07/M04 A3022 RMK A01 T00651041  RH  047%=      5-min Rain = 0
KDO1 201756Z 18012KT 07/M04 A3022 RMK A01 T00651040  RH  047%=      5-min Rain = 0
KDO1 201757Z 18010KT 07/M04 A3022 RMK A01 T00651043  RH  046%=      5-min Rain = 0
KDO1 201758Z 19008KT 06/M04 A3022 RMK A01 T00641041  RH  047%=      5-min Rain = 0
KDO1 201759Z 17009KT 07/M04 A3022 RMK A01 T00661038  RH  047%=      5-min Rain = 0
KDO1 201800Z 19011KT 07/M04 A3022 RMK A01 T00681039  RH  046%=      5-min Rain = 0
KDO1 201801Z 19010KT 07/M04 A3022 RMK A01 T00671042  RH  046%=      5-min Rain = 0
KDO1 201802Z 18012KT 07/M04 A3022 RMK A01 T00651042  RH  046%=      5-min Rain = 0
KDO1 201803Z 18012KT 07/M04 A3022 RMK A01 T00651041  RH  047%=      5-min Rain = 0
KDO1 201804Z 18010KT 07/M04 A3022 RMK A01 T00651041  RH  047%=      5-min Rain = 0
KDO1 201805Z 18013KT 07/M04 A3022 RMK A01 T00651039  RH  047%=      5-min Rain = 0
KDO1 201806Z 18011KT 07/M04 A3022 RMK A01 T00661040  RH  047%=      5-min Rain = 0
KDO1 201807Z 18013KT 07/M04 A3022 RMK A01 T00661040  RH  047%=      5-min Rain = 0
KDO1 201808Z 18009KT 07/M04 A3022 RMK A01 T00661040  RH  047%=      5-min Rain = 0
KDO1 201809Z 18009KT 07/M04 A3022 RMK A01 T00651039  RH  047%=      5-min Rain = 0
KDO1 201810Z 17013KT 07/M04 A3021 RMK A01 T00661039  RH  047%=      5-min Rain = 0
KDO1 201811Z 18011KT 07/M04 A3021 RMK A01 T00661041  RH  046%=      5-min Rain = 0
KDO1 201812Z 17013KT 07/M04 A3021 RMK A01 T00661041  RH  046%=      5-min Rain = 0
KDO1 201813Z 17010KT 07/M04 A3021 RMK A01 T00651042  RH  047%=      5-min Rain = 0
KDO1 201814Z 17010KT 06/M04 A3021 RMK A01 T00641042  RH  047%=      5-min Rain = 0
KDO1 201815Z 17010KT 06/M04 A3021 RMK A01 T00631042  RH  047%=      5-min Rain = 0
KDO1 201816Z 17012KT 06/M04 A3021 RMK A01 T00631042  RH  047%=      5-min Rain = 0
KDO1 201817Z 16011KT 06/M04 A3021 RMK A01 T00631041  RH  047%=      5-min Rain = 0
KDO1 201818Z 17011KT 07/M04 A3021 RMK A01 T00651039  RH  047%=      5-min Rain = 0
KDO1 201819Z 18012KT 07/M04 A3021 RMK A01 T00671039  RH  047%=      5-min Rain = 0
KDO1 201820Z 17010KT 07/M04 A302 RMK A01 T00671041  RH  046%=      5-min Rain = 0
KDO1 201821Z 18010KT 07/M04 A302 RMK A01 T00671040  RH  047%=      5-min Rain = 0
KDO1 201822Z 18009KT 07/M04 A302 RMK A01 T00691038  RH  047%=      5-min Rain = 0
KDO1 201823Z 17009KT 07/M04 A302 RMK A01 T00691039  RH  046%=      5-min Rain = 0
KDO1 201824Z 16010KT 07/M04 A302 RMK A01 T00691040  RH  046%=      5-min Rain = 0
KDO1 201825Z 16010KT 07/M04 A302 RMK A01 T00681040  RH  046%=      5-min Rain = 0
KDO1 201826Z 16009KT 07/M04 A302 RMK A01 T00681039  RH  046%=      5-min Rain = 0
KDO1 201827Z 16010KT 07/M04 A302 RMK A01 T00681040  RH  046%=      5-min Rain = 0
KDO1 201828Z 17013KT 07/M04 A302 RMK A01 T00671041  RH  046%=      5-min Rain = 0
KDO1 201829Z 16011KT 06/M04 A302 RMK A01 T00641043  RH  046%=      5-min Rain = 0
KDO1 201830Z 15012KT 06/M04 A302 RMK A01 T00621043  RH  047%=      5-min Rain = 0
KDO1 201831Z 17012KT 06/M04 A302 RMK A01 T00621042  RH  047%=      5-min Rain = 0
KDO1 201832Z 17012KT 06/M04 A302 RMK A01 T00631041  RH  047%=      5-min Rain = 0
KDO1 201833Z 17011KT 06/M04 A302 RMK A01 T00641042  RH  047%=      5-min Rain = 0
KDO1 201834Z 17011KT 06/M04 A302 RMK A01 T00641041  RH  047%=      5-min Rain = 0
KDO1 201835Z 17012KT 06/M04 A302 RMK A01 T00641042  RH  047%=      5-min Rain = 0
KDO1 201836Z 17013KT 07/M04 A3019 RMK A01 T00651040  RH  047%=      5-min Rain = 0
KDO1 201837Z 18013KT 07/M04 A3019 RMK A01 T00661041  RH  046%=      5-min Rain = 0
KDO1 201838Z 17009KT 07/M04 A3019 RMK A01 T00671039  RH  047%=      5-min Rain = 0
KDO1 201839Z 17012KT 07/M04 A3019 RMK A01 T00711035  RH  047%=      5-min Rain = 0
KDO1 201840Z 17012KT 07/M04 A3019 RMK A01 T00731039  RH  045%=      5-min Rain = 0
KDO1 201841Z 18012KT 07/M04 A3019 RMK A01 T00711039  RH  046%=      5-min Rain = 0
KDO1 201842Z 18013KT 07/M04 A3019 RMK A01 T00701039  RH  046%=      5-min Rain = 0
KDO1 201843Z 18012KT 07/M04 A3019 RMK A01 T00691039  RH  046%=      5-min Rain = 0
KDO1 201844Z 17012KT 07/M04 A3019 RMK A01 T00691040  RH  046%=      5-min Rain = 0
KDO1 201845Z 17013KT 07/M04 A3019 RMK A01 T00691039  RH  046%=      5-min Rain = 0
KDO1 201846Z 16013KT 07/M04 A3019 RMK A01 T00691041  RH  046%=      5-min Rain = 0
KDO1 201847Z 17011KT 07/M04 A3019 RMK A01 T00681039  RH  046%=      5-min Rain = 0
KDO1 201848Z 17012KT 07/M04 A3019 RMK A01 T00701038  RH  046%=      5-min Rain = 0
KDO1 201849Z 17011KT 07/M04 A3019 RMK A01 T00721036  RH  046%=      5-min Rain = 0
KDO1 201850Z 17010KT 07/M04 A3019 RMK A01 T00741036  RH  046%=      5-min Rain = 0
KDO1 201851Z 18011G16KT 08/M04 A3018 RMK A01 T00751036  RH  045%=      5-min Rain = 0
KDO1 201852Z 18011KT 08/M04 A3019 RMK A01 T00761036  RH  045%=      5-min Rain = 0
KDO1 201853Z 17009KT 07/M04 A3019 RMK A01 T00731040  RH  045%=      5-min Rain = 0
KDO1 201854Z 16011KT 07/M04 A3019 RMK A01 T00711038  RH  046%=      5-min Rain = 0
KDO1 201855Z 16011KT 07/M04 A3019 RMK A01 T00711039  RH  046%=      5-min Rain = 0
KDO1 201856Z 17010KT 07/M04 A3019 RMK A01 T00711037  RH  046%=      5-min Rain = 0
KDO1 201857Z 18010KT 07/M04 A3019 RMK A01 T00721036  RH  046%=      5-min Rain = 0
KDO1 201858Z 20013KT 07/M04 A3019 RMK A01 T00741036  RH  046%=      5-min Rain = 0
KDO1 201859Z 19012KT 07/M04 A3019 RMK A01 T00731037  RH  045%=      5-min Rain = 0
KDO1 201900Z 19012KT 07/M04 A3019 RMK A01 T00731037  RH  045%=      5-min Rain = 0
KDO1 201901Z 20010G15KT 07/M04 A3019 RMK A01 T00721038  RH  045%=      5-min Rain = 0
KDO1 201902Z 19013KT 07/M04 A3019 RMK A01 T00721037  RH  046%=      5-min Rain = 0
KDO1 201903Z 18010G15KT 07/M04 A3019 RMK A01 T00731036  RH  046%=      5-min Rain = 0
KDO1 201904Z 18011KT 07/M04 A3019 RMK A01 T00741036  RH  046%=      5-min Rain = 0
KDO1 201905Z 17011KT 07/M04 A3019 RMK A01 T00741037  RH  045%=      5-min Rain = 0
KDO1 201906Z 17008KT 07/M04 A3019 RMK A01 T00731038  RH  045%=      5-min Rain = 0
KDO1 201907Z 17010KT 07/M04 A3019 RMK A01 T00741035  RH  046%=      5-min Rain = 0
KDO1 201908Z 17012KT 08/M04 A3018 RMK A01 T00751037  RH  045%=      5-min Rain = 0
KDO1 201909Z 17009KT 07/M04 A3018 RMK A01 T00741039  RH  045%=      5-min Rain = 0
KDO1 201910Z 17010KT 07/M04 A3018 RMK A01 T00741036  RH  045%=      5-min Rain = 0
KDO1 201911Z 16012KT 08/M04 A3018 RMK A01 T00751037  RH  045%=      5-min Rain = 0
KDO1 201912Z 17011KT 08/M04 A3018 RMK A01 T00751037  RH  045%=      5-min Rain = 0
KDO1 201913Z 17010KT 08/M04 A3018 RMK A01 T00761036  RH  045%=      5-min Rain = 0
KDO1 201914Z 17010KT 08/M04 A3018 RMK A01 T00771036  RH  045%=      5-min Rain = 0
KDO1 201915Z 17011KT 08/M04 A3018 RMK A01 T00771036  RH  045%=      5-min Rain = 0
KDO1 201916Z 17010KT 08/M04 A3018 RMK A01 T00771036  RH  045%=      5-min Rain = 0
KDO1 201917Z 18008KT 08/M04 A3018 RMK A01 T00771036  RH  045%=      5-min Rain = 0
KDO1 201918Z 18011KT 08/M03 A3018 RMK A01 T00791033  RH  045%=      5-min Rain = 0
KDO1 201919Z 19010KT 08/M03 A3018 RMK A01 T00821033  RH  044%=      5-min Rain = 0
KDO1 201920Z 18010KT 08/M03 A3018 RMK A01 T00821034  RH  044%=      5-min Rain = 0
KDO1 201921Z 18010KT 08/M04 A3018 RMK A01 T00811035  RH  044%=      5-min Rain = 0
KDO1 201922Z 17008KT 08/M04 A3018 RMK A01 T00791037  RH  044%=      5-min Rain = 0
KDO1 201923Z 18007KT 08/M04 A3018 RMK A01 T00781036  RH  044%=      5-min Rain = 0
KDO1 201924Z 17007KT 08/M03 A3017 RMK A01 T00821030  RH  045%=      5-min Rain = 0
KDO1 201925Z 19007KT 08/M03 A3017 RMK A01 T00841033  RH  043%=      5-min Rain = 0
KDO1 201926Z 16008KT 08/M03 A3017 RMK A01 T00831034  RH  043%=      5-min Rain = 0
KDO1 201927Z 18008KT 08/M03 A3017 RMK A01 T00831033  RH  044%=      5-min Rain = 0
KDO1 201928Z 16009KT 08/M04 A3017 RMK A01 T00831035  RH  043%=      5-min Rain = 0
KDO1 201929Z 17008KT 08/M04 A3017 RMK A01 T00821035  RH  043%=      5-min Rain = 0
KDO1 201930Z 18009KT 08/M03 A3017 RMK A01 T00821034  RH  044%=      5-min Rain = 0
KDO1 201931Z 18007KT 08/M04 A3017 RMK A01 T00831035  RH  043%=      5-min Rain = 0
KDO1 201932Z 17005KT 08/M04 A3016 RMK A01 T00821036  RH  043%=      5-min Rain = 0
KDO1 201933Z 17007KT 08/M03 A3016 RMK A01 T00831033  RH  044%=      5-min Rain = 0
KDO1 201934Z 18006KT 08/M03 A3016 RMK A01 T00841034  RH  043%=      5-min Rain = 0
KDO1 201935Z 17010KT 09/M03 A3016 RMK A01 T00861031  RH  043%=      5-min Rain = 0
KDO1 201936Z 18010KT 09/M03 A3016 RMK A01 T00881031  RH  043%=      5-min Rain = 0
KDO1 201937Z 19009KT 09/M03 A3016 RMK A01 T00881031  RH  043%=      5-min Rain = 0
KDO1 201938Z 18011KT 09/M03 A3016 RMK A01 T00901029  RH  043%=      5-min Rain = 0
KDO1 201939Z 18011KT 09/M03 A3016 RMK A01 T00911030  RH  042%=      5-min Rain = 0
KDO1 201940Z 18009KT 09/M03 A3016 RMK A01 T00931029  RH  042%=      5-min Rain = 0
KDO1 201941Z 19010KT 09/M03 A3016 RMK A01 T00941029  RH  042%=      5-min Rain = 0
KDO1 201942Z 18007KT 09/M03 A3016 RMK A01 T00931031  RH  042%=      5-min Rain = 0
KDO1 201943Z 18007KT 09/M03 A3016 RMK A01 T00921032  RH  042%=      5-min Rain = 0
KDO1 201944Z 19008KT 09/M03 A3016 RMK A01 T00911032  RH  042%=      5-min Rain = 0
KDO1 201945Z 18011KT 09/M03 A3016 RMK A01 T00911032  RH  042%=      5-min Rain = 0
KDO1 201946Z 17009KT 09/M03 A3015 RMK A01 T00901033  RH  042%=      5-min Rain = 0
KDO1 201947Z 16008KT 09/M03 A3015 RMK A01 T00901033  RH  042%=      5-min Rain = 0
KDO1 201948Z 17008KT 09/M03 A3015 RMK A01 T00901033  RH  042%=      5-min Rain = 0
KDO1 201949Z 17009KT 09/M03 A3015 RMK A01 T00901033  RH  042%=      5-min Rain = 0
KDO1 201950Z 17011KT 09/M03 A3015 RMK A01 T00911032  RH  042%=      5-min Rain = 0
KDO1 201951Z 17010KT 09/M03 A3015 RMK A01 T00901034  RH  041%=      5-min Rain = 0
KDO1 201952Z 16008KT 09/M03 A3015 RMK A01 T00901033  RH  042%=      5-min Rain = 0
KDO1 201953Z 17008KT 09/M03 A3015 RMK A01 T00891033  RH  042%=      5-min Rain = 0
KDO1 201954Z 15007KT 09/M03 A3015 RMK A01 T00901031  RH  042%=      5-min Rain = 0
KDO1 201955Z 18011KT 09/M03 A3015 RMK A01 T00931030  RH  042%=      5-min Rain = 0
KDO1 201956Z 18011KT 09/M03 A3015 RMK A01 T00941031  RH  041%=      5-min Rain = 0
KDO1 201957Z 19009KT 09/M03 A3015 RMK A01 T00931032  RH  041%=      5-min Rain = 0
KDO1 201958Z 17007KT 09/M03 A3015 RMK A01 T00931031  RH  042%=      5-min Rain = 0
KDO1 201959Z 15007KT 09/M03 A3015 RMK A01 T00931031  RH  041%=      5-min Rain = 0
KDO1 202000Z 15008KT 09/M03 A3014 RMK A01 T00941030  RH  042%=      5-min Rain = 0
KDO1 202001Z 17009KT 10/M03 A3014 RMK A01 T00951029  RH  041%=      5-min Rain = 0
KDO1 202002Z 17008KT 09/M03 A3014 RMK A01 T00941031  RH  041%=      5-min Rain = 0
KDO1 202003Z 18008KT 09/M03 A3014 RMK A01 T00931031  RH  041%=      5-min Rain = 0
KDO1 202004Z 18006KT 09/M03 A3014 RMK A01 T00941029  RH  042%=      5-min Rain = 0
KDO1 202005Z 18005KT 10/M03 A3014 RMK A01 T00951029  RH  042%=      5-min Rain = 0
KDO1 202006Z 16007KT 10/M03 A3014 RMK A01 T00971028  RH  041%=      5-min Rain = 0
KDO1 202007Z 17010KT 10/M03 A3014 RMK A01 T00991029  RH  041%=      5-min Rain = 0
KDO1 202008Z 17009KT 10/M03 A3014 RMK A01 T00981031  RH  040%=      5-min Rain = 0
KDO1 202009Z 18009KT 10/M03 A3014 RMK A01 T00971031  RH  041%=      5-min Rain = 0
KDO1 202010Z 19007KT 10/M03 A3014 RMK A01 T00961030  RH  041%=      5-min Rain = 0
KDO1 202011Z 19007KT 10/M03 A3014 RMK A01 T00991026  RH  042%=      5-min Rain = 0
KDO1 202012Z 17007KT 10/M03 A3014 RMK A01 T01021027  RH  040%=      5-min Rain = 0
KDO1 202013Z 17006KT 10/M03 A3014 RMK A01 T01011030  RH  040%=      5-min Rain = 0
KDO1 202014Z 17009KT 10/M03 A3014 RMK A01 T01011028  RH  040%=      5-min Rain = 0
KDO1 202015Z 16009KT 10/M03 A3014 RMK A01 T01011029  RH  040%=      5-min Rain = 0
KDO1 202016Z 16009KT 10/M03 A3014 RMK A01 T01011030  RH  040%=      5-min Rain = 0
KDO1 202017Z 15009KT 10/M03 A3014 RMK A01 T00991031  RH  040%=      5-min Rain = 0
KDO1 202018Z 15007KT 10/M03 A3014 RMK A01 T00981030  RH  040%=      5-min Rain = 0
KDO1 202019Z 15008KT 10/M03 A3014 RMK A01 T00981029  RH  041%=      5-min Rain = 0
KDO1 202020Z 16007KT 10/M03 A3013 RMK A01 T00991030  RH  040%=      5-min Rain = 0
KDO1 202021Z 16009KT 10/M03 A3013 RMK A01 T00991029  RH  040%=      5-min Rain = 0
KDO1 202022Z 15007KT 10/M03 A3013 RMK A01 T01001029  RH  040%=      5-min Rain = 0
KDO1 202023Z 16008KT 10/M03 A3013 RMK A01 T01011027  RH  040%=      5-min Rain = 0
KDO1 202024Z 17009KT 10/M03 A3013 RMK A01 T01031027  RH  040%=      5-min Rain = 0
KDO1 202025Z 17007KT 10/M03 A3013 RMK A01 T01041027  RH  040%=      5-min Rain = 0
KDO1 202026Z 17007KT 11/M02 A3013 RMK A01 T01071024  RH  040%=      5-min Rain = 0
KDO1 202027Z 18010KT 11/M03 A3013 RMK A01 T01091026  RH  039%=      5-min Rain = 0
KDO1 202028Z 17010KT 11/M03 A3013 RMK A01 T01061030  RH  038%=      5-min Rain = 0
KDO1 202029Z 18008KT 10/M03 A3013 RMK A01 T01031029  RH  039%=      5-min Rain = 0
KDO1 202030Z 17008KT 10/M03 A3013 RMK A01 T01031029  RH  040%=      5-min Rain = 0
KDO1 202031Z 17007KT 10/M03 A3013 RMK A01 T01031029  RH  039%=      5-min Rain = 0
KDO1 202032Z 15005KT 10/M03 A3012 RMK A01 T01031029  RH  040%=      5-min Rain = 0
KDO1 202033Z 15006KT 10/M03 A3012 RMK A01 T01041027  RH  040%=      5-min Rain = 0
KDO1 202034Z 19009G14KT 11/M03 A3012 RMK A01 T01051027  RH  039%=      5-min Rain = 0
KDO1 202035Z 19012KT 11/M03 A3012 RMK A01 T01051028  RH  039%=      5-min Rain = 0
KDO1 202036Z 18009KT 10/M03 A3012 RMK A01 T01041027  RH  040%=      5-min Rain = 0
KDO1 202037Z 18008KT 10/M03 A3012 RMK A01 T01041029  RH  039%=      5-min Rain = 0
KDO1 202038Z 16008KT 10/M03 A3012 RMK A01 T01041027  RH  040%=      5-min Rain = 0
KDO1 202039Z 17009KT 10/M03 A3012 RMK A01 T01031029  RH  040%=      5-min Rain = 0
KDO1 202040Z 16009KT 10/M03 A3012 RMK A01 T01021030  RH  040%=      5-min Rain = 0
KDO1 202041Z 15009KT 10/M03 A3012 RMK A01 T01011029  RH  040%=      5-min Rain = 0
KDO1 202042Z 15009KT 10/M03 A3012 RMK A01 T01011029  RH  040%=      5-min Rain = 0
KDO1 202043Z 15010KT 10/M03 A3012 RMK A01 T01011027  RH  040%=      5-min Rain = 0
KDO1 202044Z 15009KT 10/M03 A3012 RMK A01 T01001030  RH  040%=      5-min Rain = 0
KDO1 202045Z 16010KT 10/M03 A3012 RMK A01 T00991029  RH  040%=      5-min Rain = 0
KDO1 202046Z 17009KT 10/M03 A3012 RMK A01 T00991029  RH  040%=      5-min Rain = 0
KDO1 202047Z 17009KT 10/M03 A3012 RMK A01 T00991029  RH  041%=      5-min Rain = 0
KDO1 202048Z 17008KT 10/M03 A3012 RMK A01 T00981030  RH  041%=      5-min Rain = 0
KDO1 202049Z 16007KT 10/M03 A3012 RMK A01 T00981030  RH  041%=      5-min Rain = 0
KDO1 202050Z 16007KT 10/M03 A3011 RMK A01 T00971030  RH  041%=      5-min Rain = 0
KDO1 202051Z 14008KT 10/M03 A3011 RMK A01 T00961030  RH  041%=      5-min Rain = 0
KDO1 202052Z 15008KT 10/M03 A3011 RMK A01 T00961029  RH  041%=      5-min Rain = 0
KDO1 202053Z 17010KT 10/M03 A3011 RMK A01 T00961029  RH  041%=      5-min Rain = 0
KDO1 202054Z 17009KT 10/M03 A3011 RMK A01 T00951030  RH  041%=      5-min Rain = 0
KDO1 202055Z 17009KT 10/M03 A3011 RMK A01 T00961030  RH  041%=      5-min Rain = 0
KDO1 202056Z 17007KT 10/M03 A3011 RMK A01 T00951029  RH  041%=      5-min Rain = 0
KDO1 202057Z 17009KT 10/M03 A3011 RMK A01 T00951029  RH  042%=      5-min Rain = 0
KDO1 202058Z 17008KT 10/M03 A3011 RMK A01 T00961029  RH  041%=      5-min Rain = 0
KDO1 202059Z 16009KT 10/M03 A3011 RMK A01 T00961029  RH  041%=      5-min Rain = 0
KDO1 202100Z 16008KT 10/M03 A3011 RMK A01 T00951029  RH  042%=      5-min Rain = 0
KDO1 202101Z 15007KT 10/M03 A3011 RMK A01 T00951029  RH  042%=      5-min Rain = 0
KDO1 202102Z 16008KT 10/M03 A3011 RMK A01 T00951029  RH  042%=      5-min Rain = 0
KDO1 202103Z 18006KT 10/M03 A3011 RMK A01 T00951028  RH  042%=      5-min Rain = 0
KDO1 202104Z 18009KT 10/M03 A3011 RMK A01 T00961027  RH  042%=      5-min Rain = 0
KDO1 202105Z 18008KT 10/M03 A3011 RMK A01 T00961027  RH  042%=      5-min Rain = 0
KDO1 202106Z 18008KT 10/M03 A3011 RMK A01 T00961028  RH  042%=      5-min Rain = 0
KDO1 202107Z 18006KT 10/M03 A3011 RMK A01 T00961028  RH  042%=      5-min Rain = 0
KDO1 202108Z 18006KT 10/M03 A3011 RMK A01 T00961027  RH  042%=      5-min Rain = 0
KDO1 202109Z 18008KT 10/M03 A3011 RMK A01 T00971026  RH  042%=      5-min Rain = 0
KDO1 202110Z 18007KT 10/M03 A3011 RMK A01 T00961028  RH  042%=      5-min Rain = 0
KDO1 202111Z 15006KT 10/M03 A3011 RMK A01 T00971027  RH  042%=      5-min Rain = 0
KDO1 202112Z 16008KT 10/M03 A3011 RMK A01 T00971027  RH  042%=      5-min Rain = 0
KDO1 202113Z 16007KT 10/M03 A3011 RMK A01 T00961029  RH  041%=      5-min Rain = 0
KDO1 202114Z 17007KT 10/M03 A301 RMK A01 T00961028  RH  042%=      5-min Rain = 0
KDO1 202115Z 17006KT 10/M03 A3011 RMK A01 T00961028  RH  042%=      5-min Rain = 0
KDO1 202116Z 16007KT 10/M03 A3011 RMK A01 T00961028  RH  042%=      5-min Rain = 0
KDO1 202117Z 16008KT 10/M03 A301 RMK A01 T00971028  RH  042%=      5-min Rain = 0
KDO1 202118Z 16007KT 10/M03 A301 RMK A01 T00971028  RH  041%=      5-min Rain = 0
KDO1 202119Z 16007KT 10/M03 A301 RMK A01 T00971028  RH  041%=      5-min Rain = 0
KDO1 202120Z 15007KT 10/M03 A301 RMK A01 T00971027  RH  042%=      5-min Rain = 0
KDO1 202121Z 16007KT 10/M03 A301 RMK A01 T00981027  RH  041%=      5-min Rain = 0
KDO1 202122Z 17008KT 10/M03 A301 RMK A01 T00981027  RH  041%=      5-min Rain = 0
KDO1 202123Z 17006KT 10/M03 A301 RMK A01 T00981028  RH  041%=      5-min Rain = 0
KDO1 202124Z 17007KT 10/M03 A301 RMK A01 T00991028  RH  041%=      5-min Rain = 0
KDO1 202125Z 18008KT 10/M03 A301 RMK A01 T00981028  RH  041%=      5-min Rain = 0
KDO1 202126Z 18007KT 10/M03 A301 RMK A01 T00981028  RH  041%=      5-min Rain = 0
KDO1 202127Z 18007KT 10/M03 A301 RMK A01 T00981027  RH  041%=      5-min Rain = 0
KDO1 202128Z 18007KT 10/M03 A301 RMK A01 T00981028  RH  041%=      5-min Rain = 0
KDO1 202129Z 17007KT 10/M03 A301 RMK A01 T00981028  RH  041%=      5-min Rain = 0
KDO1 202130Z 17006KT 10/M03 A301 RMK A01 T00981028  RH  041%=      5-min Rain = 0
KDO1 202131Z 18008KT 10/M03 A301 RMK A01 T00981027  RH  041%=      5-min Rain = 0
KDO1 202132Z 17008KT 10/M03 A301 RMK A01 T00991027  RH  041%=      5-min Rain = 0
KDO1 202133Z 16007KT 10/M03 A301 RMK A01 T00991029  RH  041%=      5-min Rain = 0
KDO1 202134Z 16008KT 10/M03 A301 RMK A01 T00991028  RH  041%=      5-min Rain = 0
KDO1 202135Z 16008KT 10/M03 A301 RMK A01 T00991028  RH  041%=      5-min Rain = 0
KDO1 202136Z 15009KT 10/M03 A301 RMK A01 T00991028  RH  041%=      5-min Rain = 0
KDO1 202137Z 15008KT 10/M03 A301 RMK A01 T01001027  RH  041%=      5-min Rain = 0
KDO1 202138Z 14009KT 10/M03 A301 RMK A01 T01001028  RH  041%=      5-min Rain = 0
KDO1 202139Z 13008KT 10/M03 A301 RMK A01 T01001028  RH  040%=      5-min Rain = 0
KDO1 202140Z 13010KT 10/M03 A301 RMK A01 T01011027  RH  041%=      5-min Rain = 0
KDO1 202141Z 13010KT 10/M03 A301 RMK A01 T01011029  RH  040%=      5-min Rain = 0
KDO1 202142Z 14009KT 10/M03 A301 RMK A01 T01021028  RH  040%=      5-min Rain = 0
KDO1 202143Z 13009KT 10/M03 A301 RMK A01 T01031027  RH  040%=      5-min Rain = 0
KDO1 202144Z 12009KT 10/M03 A301 RMK A01 T01031027  RH  040%=      5-min Rain = 0
KDO1 202145Z 13009KT 10/M03 A301 RMK A01 T01031027  RH  040%=      5-min Rain = 0
KDO1 202146Z 15009KT 10/M03 A301 RMK A01 T01041027  RH  040%=      5-min Rain = 0
KDO1 202147Z 16008KT 10/M03 A301 RMK A01 T01041027  RH  040%=      5-min Rain = 0
KDO1 202148Z 15007KT 10/M03 A301 RMK A01 T01041028  RH  039%=      5-min Rain = 0
KDO1 202149Z 14009KT 10/M03 A301 RMK A01 T01041026  RH  040%=      5-min Rain = 0
KDO1 202150Z 15009KT 11/M03 A301 RMK A01 T01051028  RH  039%=      5-min Rain = 0
KDO1 202151Z 15007KT 11/M03 A301 RMK A01 T01051028  RH  039%=      5-min Rain = 0
KDO1 202152Z 15010KT 11/M03 A301 RMK A01 T01051028  RH  039%=      5-min Rain = 0
KDO1 202153Z 14011KT 10/M03 A301 RMK A01 T01041029  RH  039%=      5-min Rain = 0
KDO1 202154Z 13011KT 10/M03 A301 RMK A01 T01041029  RH  039%=      5-min Rain = 0
KDO1 202155Z 14009KT 10/M03 A301 RMK A01 T01031029  RH  039%=      5-min Rain = 0
KDO1 202156Z 14008KT 10/M03 A301 RMK A01 T01041028  RH  040%=      5-min Rain = 0
KDO1 202157Z 14012KT 11/M03 A301 RMK A01 T01051027  RH  040%=      5-min Rain = 0
KDO1 202158Z 14011KT 10/M03 A301 RMK A01 T01041030  RH  039%=      5-min Rain = 0
KDO1 202159Z 13010KT 10/M03 A301 RMK A01 T01021030  RH  039%=      5-min Rain = 0
KDO1 202200Z 13010KT 10/M03 A301 RMK A01 T01011030  RH  040%=      5-min Rain = 0
KDO1 202201Z 13010KT 10/M03 A301 RMK A01 T01011030  RH  040%=      5-min Rain = 0
KDO1 202202Z 13010KT 10/M03 A301 RMK A01 T01001031  RH  040%=      5-min Rain = 0
KDO1 202203Z 12009KT 10/M03 A301 RMK A01 T00981032  RH  040%=      5-min Rain = 0
KDO1 202204Z 13011KT 10/M03 A301 RMK A01 T00981031  RH  040%=      5-min Rain = 0
KDO1 202205Z 13010KT 10/M03 A301 RMK A01 T00981031  RH  040%=      5-min Rain = 0
KDO1 202206Z 13009KT 10/M03 A301 RMK A01 T00981030  RH  040%=      5-min Rain = 0
KDO1 202207Z 14009KT 10/M03 A301 RMK A01 T00981030  RH  040%=      5-min Rain = 0
KDO1 202208Z 13008KT 10/M03 A301 RMK A01 T00981029  RH  041%=      5-min Rain = 0
KDO1 202209Z 12009KT 10/M03 A301 RMK A01 T00981029  RH  041%=      5-min Rain = 0
KDO1 202210Z 12008KT 10/M03 A3009 RMK A01 T00981029  RH  041%=      5-min Rain = 0
KDO1 202211Z 12008KT 10/M03 A3009 RMK A01 T00981030  RH  041%=      5-min Rain = 0
KDO1 202212Z 13008KT 10/M03 A3009 RMK A01 T00971029  RH  041%=      5-min Rain = 0
KDO1 202213Z 13010KT 10/M03 A3009 RMK A01 T00971030  RH  041%=      5-min Rain = 0
KDO1 202214Z 12010KT 10/M03 A3009 RMK A01 T00971030  RH  041%=      5-min Rain = 0
KDO1 202215Z 13009KT 10/M03 A3009 RMK A01 T00971030  RH  041%=      5-min Rain = 0
KDO1 202216Z 13009KT 10/M03 A3009 RMK A01 T00971029  RH  041%=      5-min Rain = 0
KDO1 202217Z 13007KT 10/M03 A3009 RMK A01 T00971030  RH  041%=      5-min Rain = 0
KDO1 202218Z 13007KT 10/M03 A3009 RMK A01 T00971029  RH  041%=      5-min Rain = 0
KDO1 202219Z 13010KT 10/M03 A3009 RMK A01 T00971029  RH  041%=      5-min Rain = 0
KDO1 202220Z 13009KT 10/M03 A3009 RMK A01 T00971029  RH  041%=      5-min Rain = 0
KDO1 202221Z 13009KT 10/M03 A3009 RMK A01 T00971030  RH  041%=      5-min Rain = 0
KDO1 202222Z 14010KT 10/M03 A3009 RMK A01 T00971030  RH  041%=      5-min Rain = 0
KDO1 202223Z 14010KT 10/M03 A3009 RMK A01 T00971029  RH  041%=      5-min Rain = 0
KDO1 202224Z 13007KT 10/M03 A3009 RMK A01 T00981029  RH  041%=      5-min Rain = 0
KDO1 202225Z 14009KT 10/M03 A3009 RMK A01 T00971028  RH  041%=      5-min Rain = 0
KDO1 202226Z 13010KT 10/M03 A3009 RMK A01 T00971029  RH  041%=      5-min Rain = 0
KDO1 202227Z 14009KT 10/M03 A3009 RMK A01 T00971029  RH  041%=      5-min Rain = 0
KDO1 202228Z 14008KT 10/M03 A3009 RMK A01 T00971029  RH  041%=      5-min Rain = 0
KDO1 202229Z 14008KT 10/M03 A3009 RMK A01 T00981028  RH  041%=      5-min Rain = 0
KDO1 202230Z 13007KT 10/M03 A3009 RMK A01 T00981028  RH  041%=      5-min Rain = 0
KDO1 202231Z 13008KT 10/M03 A3009 RMK A01 T00991027  RH  041%=      5-min Rain = 0
KDO1 202232Z 13010KT 10/M03 A3009 RMK A01 T00991028  RH  041%=      5-min Rain = 0
KDO1 202233Z 13010KT 10/M03 A3009 RMK A01 T00991028  RH  041%=      5-min Rain = 0
KDO1 202234Z 13009KT 10/M03 A3009 RMK A01 T01001029  RH  040%=      5-min Rain = 0
KDO1 202235Z 12008KT 10/M03 A3009 RMK A01 T01011027  RH  041%=      5-min Rain = 0
KDO1 202236Z 13011KT 10/M03 A3009 RMK A01 T01021027  RH  040%=      5-min Rain = 0
KDO1 202237Z 13010KT 10/M03 A3009 RMK A01 T01021027  RH  040%=      5-min Rain = 0
KDO1 202238Z 13010KT 10/M03 A3009 RMK A01 T01021027  RH  040%=      5-min Rain = 0
KDO1 202239Z 13009KT 10/M03 A3009 RMK A01 T01021027  RH  040%=      5-min Rain = 0
KDO1 202240Z 12011KT 10/M03 A3009 RMK A01 T01021027  RH  040%=      5-min Rain = 0
KDO1 202241Z 12010KT 10/M03 A3009 RMK A01 T01011028  RH  040%=      5-min Rain = 0
KDO1 202242Z 13009KT 10/M03 A3009 RMK A01 T01001027  RH  041%=      5-min Rain = 0
KDO1 202243Z 14011KT 10/M03 A3009 RMK A01 T01001027  RH  041%=      5-min Rain = 0
KDO1 202244Z 13010KT 10/M03 A3009 RMK A01 T01011028  RH  040%=      5-min Rain = 0
KDO1 202245Z 14011KT 10/M03 A3009 RMK A01 T01001028  RH  041%=      5-min Rain = 0
KDO1 202246Z 13012KT 10/M03 A3009 RMK A01 T00991029  RH  040%=      5-min Rain = 0
KDO1 202247Z 13011KT 10/M03 A3009 RMK A01 T00991029  RH  041%=      5-min Rain = 0
KDO1 202248Z 13010KT 10/M03 A3009 RMK A01 T00991028  RH  041%=      5-min Rain = 0
KDO1 202249Z 13007KT 10/M03 A3009 RMK A01 T00981028  RH  041%=      5-min Rain = 0
KDO1 202250Z 13010KT 10/M03 A3009 RMK A01 T00981027  RH  041%=      5-min Rain = 0
KDO1 202251Z 13010KT 10/M03 A3009 RMK A01 T00981028  RH  041%=      5-min Rain = 0
KDO1 202252Z 13011KT 10/M03 A3009 RMK A01 T00981028  RH  041%=      5-min Rain = 0
KDO1 202253Z 13010KT 10/M03 A3009 RMK A01 T00981028  RH  041%=      5-min Rain = 0
KDO1 202254Z 13010KT 10/M03 A3008 RMK A01 T00981028  RH  041%=      5-min Rain = 0
KDO1 202255Z 13010KT 10/M03 A3008 RMK A01 T00981027  RH  041%=      5-min Rain = 0
KDO1 202256Z 13010KT 10/M03 A3008 RMK A01 T00981027  RH  041%=      5-min Rain = 0
KDO1 202257Z 13010KT 10/M03 A3008 RMK A01 T00981027  RH  041%=      5-min Rain = 0
KDO1 202258Z 13009KT 10/M03 A3008 RMK A01 T00981027  RH  041%=      5-min Rain = 0
KDO1 202259Z 13008KT 10/M03 A3008 RMK A01 T00971027  RH  041%=      5-min Rain = 0
KDO1 202300Z 13009KT 10/M03 A3008 RMK A01 T00971027  RH  042%=      5-min Rain = 0
KDO1 202301Z 13008KT 10/M03 A3008 RMK A01 T00971027  RH  042%=      5-min Rain = 0
KDO1 202302Z 13010KT 10/M03 A3008 RMK A01 T00971027  RH  042%=      5-min Rain = 0
KDO1 202303Z 13011KT 10/M03 A3008 RMK A01 T00961027  RH  042%=      5-min Rain = 0
KDO1 202304Z 13010KT 10/M03 A3008 RMK A01 T00961028  RH  042%=      5-min Rain = 0
KDO1 202305Z 13010KT 10/M03 A3008 RMK A01 T00961028  RH  042%=      5-min Rain = 0
KDO1 202306Z 12012KT 10/M03 A3008 RMK A01 T00961028  RH  042%=      5-min Rain = 0
KDO1 202307Z 12012KT 10/M03 A3008 RMK A01 T00951029  RH  042%=      5-min Rain = 0
KDO1 202308Z 12011KT 09/M03 A3008 RMK A01 T00941029  RH  042%=      5-min Rain = 0
KDO1 202309Z 11010KT 09/M03 A3008 RMK A01 T00931028  RH  042%=      5-min Rain = 0
KDO1 202310Z 12012KT 09/M03 A3008 RMK A01 T00931028  RH  042%=      5-min Rain = 0
KDO1 202311Z 12009KT 09/M03 A3008 RMK A01 T00931028  RH  043%=      5-min Rain = 0
KDO1 202312Z 12009KT 09/M03 A3008 RMK A01 T00921028  RH  043%=      5-min Rain = 0
KDO1 202313Z 12009KT 09/M03 A3008 RMK A01 T00911029  RH  043%=      5-min Rain = 0
KDO1 202314Z 13009KT 09/M03 A3008 RMK A01 T00911028  RH  043%=      5-min Rain = 0
KDO1 202315Z 13008KT 09/M03 A3008 RMK A01 T00901028  RH  043%=      5-min Rain = 0
KDO1 202316Z 13008KT 09/M03 A3008 RMK A01 T00901028  RH  043%=      5-min Rain = 0
KDO1 202317Z 12009KT 09/M03 A3008 RMK A01 T00891029  RH  043%=      5-min Rain = 0
KDO1 202318Z 12009KT 09/M03 A3008 RMK A01 T00891028  RH  044%=      5-min Rain = 0
KDO1 202319Z 12010KT 09/M03 A3008 RMK A01 T00881029  RH  044%=      5-min Rain = 0
KDO1 202320Z 12010KT 09/M03 A3008 RMK A01 T00871029  RH  044%=      5-min Rain = 0
KDO1 202321Z 11011KT 09/M03 A3008 RMK A01 T00861029  RH  044%=      5-min Rain = 0
KDO1 202322Z 12011KT 09/M03 A3008 RMK A01 T00861030  RH  044%=      5-min Rain = 0
KDO1 202323Z 12010KT 09/M03 A3008 RMK A01 T00851030  RH  044%=      5-min Rain = 0
KDO1 202324Z 12010KT 08/M03 A3008 RMK A01 T00841030  RH  045%=      5-min Rain = 0
KDO1 202325Z 11012KT 08/M03 A3008 RMK A01 T00831030  RH  045%=      5-min Rain = 0
KDO1 202326Z 12013KT 08/M03 A3008 RMK A01 T00821031  RH  045%=      5-min Rain = 0
KDO1 202327Z 11011KT 08/M03 A3008 RMK A01 T00811032  RH  045%=      5-min Rain = 0
KDO1 202328Z 12012KT 08/M03 A3008 RMK A01 T00801032  RH  045%=      5-min Rain = 0
KDO1 202329Z 12011KT 08/M03 A3008 RMK A01 T00791032  RH  045%=      5-min Rain = 0
KDO1 202330Z 12008KT 08/M03 A3008 RMK A01 T00781031  RH  046%=      5-min Rain = 0
KDO1 202331Z 12010KT 08/M03 A3008 RMK A01 T00771031  RH  046%=      5-min Rain = 0
KDO1 202332Z 12009KT 08/M03 A3007 RMK A01 T00771032  RH  046%=      5-min Rain = 0
KDO1 202333Z 12010KT 08/M03 A3007 RMK A01 T00761032  RH  046%=      5-min Rain = 0
KDO1 202334Z 12009KT 08/M03 A3007 RMK A01 T00761032  RH  046%=      5-min Rain = 0
KDO1 202335Z 12008KT 08/M03 A3007 RMK A01 T00751032  RH  047%=      5-min Rain = 0
KDO1 202336Z 12009KT 08/M03 A3007 RMK A01 T00751031  RH  047%=      5-min Rain = 0
KDO1 202337Z 12009KT 08/M03 A3007 RMK A01 T00751032  RH  047%=      5-min Rain = 0
KDO1 202338Z 13009KT 08/M03 A3007 RMK A01 T00751031  RH  047%=      5-min Rain = 0
KDO1 202339Z 13009KT 07/M03 A3007 RMK A01 T00741032  RH  047%=      5-min Rain = 0
KDO1 202340Z 13009KT 07/M03 A3007 RMK A01 T00741031  RH  047%=      5-min Rain = 0
KDO1 202341Z 13010KT 07/M03 A3007 RMK A01 T00731031  RH  047%=      5-min Rain = 0
KDO1 202342Z 13008KT 07/M03 A3007 RMK A01 T00731031  RH  047%=      5-min Rain = 0
KDO1 202343Z 13009KT 07/M03 A3007 RMK A01 T00731031  RH  047%=      5-min Rain = 0
KDO1 202344Z 13007KT 07/M03 A3007 RMK A01 T00731031  RH  047%=      5-min Rain = 0
KDO1 202345Z 13006KT 07/M03 A3007 RMK A01 T00721031  RH  048%=      5-min Rain = 0
KDO1 202346Z 13007KT 07/M03 A3007 RMK A01 T00721031  RH  048%=      5-min Rain = 0
KDO1 202347Z 13008KT 07/M03 A3007 RMK A01 T00711031  RH  048%=      5-min Rain = 0
KDO1 202348Z 12007KT 07/M03 A3007 RMK A01 T00711031  RH  048%=      5-min Rain = 0
KDO1 202349Z 13007KT 07/M03 A3007 RMK A01 T00711031  RH  048%=      5-min Rain = 0
KDO1 202350Z 13007KT 07/M03 A3007 RMK A01 T00701031  RH  048%=      5-min Rain = 0
KDO1 202351Z 13008KT 07/M03 A3007 RMK A01 T00701031  RH  049%=      5-min Rain = 0
KDO1 202352Z 13007KT 07/M03 A3007 RMK A01 T00691031  RH  049%=      5-min Rain = 0
KDO1 202353Z 13008KT 07/M03 A3007 RMK A01 T00691031  RH  049%=      5-min Rain = 0
KDO1 202354Z 13007KT 07/M03 A3007 RMK A01 T00691031  RH  049%=      5-min Rain = 0
KDO1 202355Z 13007KT 07/M03 A3007 RMK A01 T00681031  RH  049%=      5-min Rain = 0
KDO1 202356Z 13007KT 07/M03 A3007 RMK A01 T00681031  RH  049%=      5-min Rain = 0
KDO1 202357Z 13008KT 07/M03 A3007 RMK A01 T00671031  RH  050%=      5-min Rain = 0
KDO1 202358Z 13008KT 07/M03 A3007 RMK A01 T00671031  RH  050%=      5-min Rain = 0
KDO1 202359Z 13007KT 07/M03 A3007 RMK A01 T00671031  RH  050%=      5-min Rain = 0
KDO1 210000Z 13006KT 07/M03 A3007 RMK A01 T00671031  RH  050%=      5-min Rain = 0
KDO1 210001Z 13007KT 07/M03 A3007 RMK A01 T00661031  RH  050%=      5-min Rain = 0
KDO1 210002Z 12008KT 07/M03 A3007 RMK A01 T00651031  RH  050%=      5-min Rain = 0
KDO1 210003Z 13008KT 07/M03 A3007 RMK A01 T00651031  RH  050%=      5-min Rain = 0
KDO1 210004Z 12007KT 07/M03 A3007 RMK A01 T00651031  RH  050%=      5-min Rain = 0
KDO1 210005Z 12007KT 07/M03 A3007 RMK A01 T00651031  RH  050%=      5-min Rain = 0
KDO1 210006Z 13008KT 06/M03 A3007 RMK A01 T00641031  RH  050%=      5-min Rain = 0
KDO1 210007Z 13009KT 07/M03 A3007 RMK A01 T00651031  RH  050%=      5-min Rain = 0
KDO1 210008Z 12008KT 06/M03 A3007 RMK A01 T00641031  RH  050%=      5-min Rain = 0
KDO1 210009Z 12007KT 06/M03 A3007 RMK A01 T00641031  RH  051%=      5-min Rain = 0
KDO1 210010Z 12007KT 06/M03 A3007 RMK A01 T00631031  RH  051%=      5-min Rain = 0
KDO1 210011Z 12008KT 06/M03 A3007 RMK A01 T00621031  RH  051%=      5-min Rain = 0
KDO1 210012Z 12008KT 06/M03 A3007 RMK A01 T00621031  RH  051%=      5-min Rain = 0
KDO1 210013Z 12008KT 06/M03 A3007 RMK A01 T00611031  RH  051%=      5-min Rain = 0
KDO1 210014Z 12006KT 06/M03 A3007 RMK A01 T00611032  RH  052%=      5-min Rain = 0
KDO1 210015Z 12008KT 06/M03 A3007 RMK A01 T00601032  RH  052%=      5-min Rain = 0
KDO1 210016Z 12007KT 06/M03 A3007 RMK A01 T00591032  RH  052%=      5-min Rain = 0
KDO1 210017Z 12007KT 06/M03 A3007 RMK A01 T00591032  RH  052%=      5-min Rain = 0
KDO1 210018Z 12007KT 06/M03 A3007 RMK A01 T00591031  RH  052%=      5-min Rain = 0
KDO1 210019Z 11006KT 06/M03 A3007 RMK A01 T00581032  RH  052%=      5-min Rain = 0
KDO1 210020Z 12006KT 06/M03 A3007 RMK A01 T00581032  RH  052%=      5-min Rain = 0
KDO1 210021Z 12006KT 06/M03 A3007 RMK A01 T00571032  RH  053%=      5-min Rain = 0
KDO1 210022Z 12006KT 06/M03 A3007 RMK A01 T00571032  RH  053%=      5-min Rain = 0
KDO1 210023Z 12006KT 06/M03 A3007 RMK A01 T00561032  RH  053%=      5-min Rain = 0
KDO1 210024Z 12006KT 06/M03 A3007 RMK A01 T00561032  RH  053%=      5-min Rain = 0
KDO1 210025Z 12005KT 06/M03 A3007 RMK A01 T00551032  RH  053%=      5-min Rain = 0
KDO1 210026Z 12005KT 05/M03 A3007 RMK A01 T00541032  RH  054%=      5-min Rain = 0
KDO1 210027Z 12006KT 05/M03 A3007 RMK A01 T00541032  RH  054%=      5-min Rain = 0
KDO1 210028Z 11005KT 05/M03 A3007 RMK A01 T00541032  RH  054%=      5-min Rain = 0
KDO1 210029Z 11005KT 05/M03 A3007 RMK A01 T00541032  RH  054%=      5-min Rain = 0
KDO1 210030Z 11005KT 05/M03 A3007 RMK A01 T00531032  RH  054%=      5-min Rain = 0
KDO1 210031Z 11005KT 05/M03 A3007 RMK A01 T00521032  RH  054%=      5-min Rain = 0
KDO1 210032Z 11005KT 05/M03 A3007 RMK A01 T00511033  RH  055%=      5-min Rain = 0
KDO1 210033Z 11005KT 05/M03 A3007 RMK A01 T00511033  RH  055%=      5-min Rain = 0
KDO1 210034Z 11006KT 05/M03 A3007 RMK A01 T00511033  RH  055%=      5-min Rain = 0
KDO1 210035Z 11006KT 05/M03 A3007 RMK A01 T00511032  RH  055%=      5-min Rain = 0
KDO1 210036Z 11005KT 05/M03 A3007 RMK A01 T00501032  RH  055%=      5-min Rain = 0
KDO1 210037Z 11005KT 05/M03 A3007 RMK A01 T00501032  RH  055%=      5-min Rain = 0
KDO1 210038Z 10005KT 05/M03 A3007 RMK A01 T00491033  RH  055%=      5-min Rain = 0
KDO1 210039Z 11006KT 05/M03 A3007 RMK A01 T00491033  RH  055%=      5-min Rain = 0
KDO1 210040Z 11006KT 05/M03 A3007 RMK A01 T00491032  RH  056%=      5-min Rain = 0
KDO1 210041Z 11006KT 05/M03 A3007 RMK A01 T00491032  RH  056%=      5-min Rain = 0
KDO1 210042Z 12006KT 05/M03 A3007 RMK A01 T00481033  RH  056%=      5-min Rain = 0
KDO1 210043Z 12006KT 05/M03 A3007 RMK A01 T00481033  RH  056%=      5-min Rain = 0
KDO1 210044Z 12006KT 05/M03 A3007 RMK A01 T00471033  RH  056%=      5-min Rain = 0
KDO1 210045Z 12006KT 05/M03 A3007 RMK A01 T00471033  RH  056%=      5-min Rain = 0
KDO1 210046Z 12006KT 05/M03 A3007 RMK A01 T00461033  RH  056%=      5-min Rain = 0
KDO1 210047Z 12007KT 05/M03 A3007 RMK A01 T00461033  RH  057%=      5-min Rain = 0
KDO1 210048Z 12006KT 05/M03 A3007 RMK A01 T00451033  RH  057%=      5-min Rain = 0
KDO1 210049Z 12006KT 05/M03 A3007 RMK A01 T00451033  RH  057%=      5-min Rain = 0
KDO1 210050Z 12007KT 05/M03 A3007 RMK A01 T00451033  RH  057%=      5-min Rain = 0
KDO1 210051Z 12007KT 04/M03 A3007 RMK A01 T00441033  RH  057%=      5-min Rain = 0
KDO1 210052Z 12007KT 04/M03 A3007 RMK A01 T00441033  RH  057%=      5-min Rain = 0
KDO1 210053Z 12006KT 04/M03 A3007 RMK A01 T00441033  RH  057%=      5-min Rain = 0
KDO1 210054Z 11006KT 04/M03 A3007 RMK A01 T00431033  RH  058%=      5-min Rain = 0
KDO1 210055Z 12006KT 04/M03 A3007 RMK A01 T00431033  RH  058%=      5-min Rain = 0
KDO1 210056Z 12005KT 04/M03 A3007 RMK A01 T00421033  RH  058%=      5-min Rain = 0
KDO1 210057Z 11006KT 04/M03 A3007 RMK A01 T00421033  RH  058%=      5-min Rain = 0
KDO1 210058Z 11005KT 04/M03 A3007 RMK A01 T00421033  RH  058%=      5-min Rain = 0
KDO1 210059Z 11005KT 04/M03 A3007 RMK A01 T00411034  RH  058%=      5-min Rain = 0
KDO1 210100Z 11005KT 04/M03 A3007 RMK A01 T00411033  RH  058%=      5-min Rain = 0
KDO1 210101Z 11006KT 04/M03 A3007 RMK A01 T00411033  RH  058%=      5-min Rain = 0
KDO1 210102Z 12006KT 04/M03 A3007 RMK A01 T00411034  RH  058%=      5-min Rain = 0
KDO1 210103Z 12005KT 04/M03 A3007 RMK A01 T00411034  RH  058%=      5-min Rain = 0
KDO1 210104Z 12005KT 04/M03 A3007 RMK A01 T00411033  RH  058%=      5-min Rain = 0
KDO1 210105Z 12005KT 04/M03 A3007 RMK A01 T00411033  RH  058%=      5-min Rain = 0
KDO1 210106Z 12005KT 04/M03 A3007 RMK A01 T00411033  RH  059%=      5-min Rain = 0
KDO1 210107Z 12005KT 04/M03 A3007 RMK A01 T00401034  RH  059%=      5-min Rain = 0
KDO1 210108Z 11005KT 04/M03 A3007 RMK A01 T00401034  RH  059%=      5-min Rain = 0
KDO1 210109Z 12004KT 04/M03 A3007 RMK A01 T00401033  RH  059%=      5-min Rain = 0
KDO1 210110Z 12004KT 04/M03 A3007 RMK A01 T00391034  RH  059%=      5-min Rain = 0
KDO1 210111Z 12004KT 04/M03 A3008 RMK A01 T00391034  RH  059%=      5-min Rain = 0
KDO1 210112Z 12005KT 04/M03 A3008 RMK A01 T00381034  RH  059%=      5-min Rain = 0
KDO1 210113Z 12004KT 04/M03 A3008 RMK A01 T00381034  RH  059%=      5-min Rain = 0
KDO1 210114Z 12004KT 04/M03 A3008 RMK A01 T00381034  RH  059%=      5-min Rain = 0
KDO1 210115Z 12004KT 04/M03 A3008 RMK A01 T00381034  RH  059%=      5-min Rain = 0
KDO1 210116Z 12004KT 04/M03 A3008 RMK A01 T00381034  RH  059%=      5-min Rain = 0
KDO1 210117Z 12004KT 04/M03 A3008 RMK A01 T00371034  RH  060%=      5-min Rain = 0
KDO1 210118Z 12005KT 04/M03 A3008 RMK A01 T00371034  RH  060%=      5-min Rain = 0
KDO1 210119Z 12004KT 04/M03 A3008 RMK A01 T00371034  RH  060%=      5-min Rain = 0
KDO1 210120Z 12005KT 04/M03 A3008 RMK A01 T00371034  RH  060%=      5-min Rain = 0
KDO1 210121Z 12005KT 04/M03 A3008 RMK A01 T00371034  RH  060%=      5-min Rain = 0
KDO1 210122Z 12005KT 04/M03 A3008 RMK A01 T00371034  RH  060%=      5-min Rain = 0
KDO1 210123Z 12006KT 04/M03 A3008 RMK A01 T00371034  RH  060%=      5-min Rain = 0
KDO1 210124Z 11006KT 04/M03 A3008 RMK A01 T00361034  RH  060%=      5-min Rain = 0
KDO1 210125Z 12006KT 04/M03 A3007 RMK A01 T00351034  RH  060%=      5-min Rain = 0
KDO1 210126Z 12007KT 04/M03 A3007 RMK A01 T00351034  RH  060%=      5-min Rain = 0
KDO1 210127Z 12006KT 04/M03 A3007 RMK A01 T00351034  RH  061%=      5-min Rain = 0
KDO1 210128Z 11007KT 03/M03 A3007 RMK A01 T00341034  RH  061%=      5-min Rain = 0
KDO1 210129Z 11007KT 03/M03 A3007 RMK A01 T00341033  RH  061%=      5-min Rain = 0
KDO1 210130Z 11007KT 03/M03 A3007 RMK A01 T00341033  RH  061%=      5-min Rain = 0
KDO1 210131Z 11007KT 03/M03 A3007 RMK A01 T00341033  RH  061%=      5-min Rain = 0
KDO1 210132Z 11006KT 03/M03 A3007 RMK A01 T00341033  RH  061%=      5-min Rain = 0
KDO1 210133Z 11006KT 03/M03 A3007 RMK A01 T00331033  RH  062%=      5-min Rain = 0
KDO1 210134Z 11007KT 03/M03 A3007 RMK A01 T00331033  RH  062%=      5-min Rain = 0
KDO1 210135Z 11006KT 03/M03 A3007 RMK A01 T00331033  RH  062%=      5-min Rain = 0
KDO1 210136Z 11007KT 03/M03 A3007 RMK A01 T00331033  RH  062%=      5-min Rain = 0
KDO1 210137Z 11007KT 03/M03 A3007 RMK A01 T00321033  RH  062%=      5-min Rain = 0
KDO1 210138Z 11007KT 03/M03 A3007 RMK A01 T00321033  RH  063%=      5-min Rain = 0
KDO1 210139Z 11007KT 03/M03 A3007 RMK A01 T00311033  RH  063%=      5-min Rain = 0
KDO1 210140Z 11006KT 03/M03 A3007 RMK A01 T00311033  RH  063%=      5-min Rain = 0
KDO1 210141Z 11006KT 03/M03 A3007 RMK A01 T00301033  RH  063%=      5-min Rain = 0
KDO1 210142Z 11006KT 03/M03 A3007 RMK A01 T00291033  RH  063%=      5-min Rain = 0
KDO1 210143Z 12006KT 03/M03 A3007 RMK A01 T00291033  RH  064%=      5-min Rain = 0
KDO1 210144Z 11007KT 03/M03 A3007 RMK A01 T00281033  RH  064%=      5-min Rain = 0
KDO1 210145Z 11006KT 03/M03 A3007 RMK A01 T00281032  RH  065%=      5-min Rain = 0
KDO1 210146Z 11006KT 03/M03 A3007 RMK A01 T00271033  RH  065%=      5-min Rain = 0
KDO1 210147Z 11006KT 03/M03 A3007 RMK A01 T00271032  RH  065%=      5-min Rain = 0
KDO1 210148Z 11006KT 03/M03 A3007 RMK A01 T00271032  RH  065%=      5-min Rain = 0
KDO1 210149Z 11006KT 03/M03 A3007 RMK A01 T00271032  RH  065%=      5-min Rain = 0
KDO1 210150Z 11005KT 03/M03 A3007 RMK A01 T00261032  RH  066%=      5-min Rain = 0
KDO1 210151Z 11005KT 03/M03 A3007 RMK A01 T00261032  RH  066%=      5-min Rain = 0
KDO1 210152Z 12004KT 03/M03 A3007 RMK A01 T00261032  RH  066%=      5-min Rain = 0
KDO1 210153Z 12006KT 03/M03 A3007 RMK A01 T00261032  RH  066%=      5-min Rain = 0
KDO1 210154Z 12005KT 03/M03 A3007 RMK A01 T00251032  RH  066%=      5-min Rain = 0
KDO1 210155Z 12005KT 03/M03 A3007 RMK A01 T00251031  RH  066%=      5-min Rain = 0
KDO1 210156Z 11004KT 03/M03 A3007 RMK A01 T00251032  RH  066%=      5-min Rain = 0
KDO1 210157Z 12006KT 03/M03 A3007 RMK A01 T00251032  RH  066%=      5-min Rain = 0
KDO1 210158Z 11005KT 03/M03 A3007 RMK A01 T00251031  RH  067%=      5-min Rain = 0
KDO1 210159Z 11004KT 02/M03 A3007 RMK A01 T00241031  RH  067%=      5-min Rain = 0
KDO1 210200Z 11004KT 02/M03 A3007 RMK A01 T00241031  RH  067%=      5-min Rain = 0
KDO1 210201Z 11004KT 02/M03 A3007 RMK A01 T00241031  RH  067%=      5-min Rain = 0
KDO1 210202Z 11003KT 02/M03 A3007 RMK A01 T00241031  RH  067%=      5-min Rain = 0
KDO1 210203Z 11004KT 02/M03 A3007 RMK A01 T00241031  RH  067%=      5-min Rain = 0
KDO1 210204Z 11003KT 02/M03 A3007 RMK A01 T00231031  RH  067%=      5-min Rain = 0
KDO1 210205Z 11003KT 02/M03 A3007 RMK A01 T00231031  RH  067%=      5-min Rain = 0
KDO1 210206Z 11004KT 02/M03 A3007 RMK A01 T00231031  RH  067%=      5-min Rain = 0
KDO1 210207Z 11003KT 02/M03 A3007 RMK A01 T00231031  RH  068%=      5-min Rain = 0
KDO1 210208Z 11004KT 02/M03 A3007 RMK A01 T00231031  RH  068%=      5-min Rain = 0
KDO1 210209Z 11004KT 02/M03 A3007 RMK A01 T00221031  RH  068%=      5-min Rain = 0
KDO1 210210Z 12004KT 02/M03 A3007 RMK A01 T00221031  RH  068%=      5-min Rain = 0
KDO1 210211Z 11004KT 02/M03 A3007 RMK A01 T00221031  RH  068%=      5-min Rain = 0
KDO1 210212Z 12004KT 02/M03 A3007 RMK A01 T00221031  RH  068%=      5-min Rain = 0
KDO1 210213Z 12005KT 02/M03 A3007 RMK A01 T00221031  RH  068%=      5-min Rain = 0
KDO1 210214Z 11004KT 02/M03 A3007 RMK A01 T00211031  RH  068%=      5-min Rain = 0
KDO1 210215Z 11004KT 02/M03 A3007 RMK A01 T00211031  RH  068%=      5-min Rain = 0
KDO1 210216Z 11004KT 02/M03 A3007 RMK A01 T00201031  RH  069%=      5-min Rain = 0
KDO1 210217Z 11004KT 02/M03 A3007 RMK A01 T00201031  RH  069%=      5-min Rain = 0
KDO1 210218Z 10004KT 02/M03 A3007 RMK A01 T00201030  RH  069%=      5-min Rain = 0
KDO1 210219Z 11003KT 02/M03 A3007 RMK A01 T00201031  RH  069%=      5-min Rain = 0
KDO1 210220Z 11003KT 02/M03 A3007 RMK A01 T00201030  RH  069%=      5-min Rain = 0
KDO1 210221Z 11004KT 02/M03 A3007 RMK A01 T00201030  RH  069%=      5-min Rain = 0
KDO1 210222Z 10003KT 02/M03 A3007 RMK A01 T00201030  RH  069%=      5-min Rain = 0
KDO1 210223Z 11004KT 02/M03 A3007 RMK A01 T00201030  RH  069%=      5-min Rain = 0
KDO1 210224Z 11003KT 02/M03 A3007 RMK A01 T00201030  RH  069%=      5-min Rain = 0
KDO1 210225Z 11004KT 02/M03 A3007 RMK A01 T00201030  RH  069%=      5-min Rain = 0
KDO1 210226Z 11004KT 02/M03 A3007 RMK A01 T00191031  RH  069%=      5-min Rain = 0
KDO1 210227Z 11004KT 02/M03 A3007 RMK A01 T00201030  RH  069%=      5-min Rain = 0
KDO1 210228Z 11003KT 02/M03 A3007 RMK A01 T00191030  RH  070%=      5-min Rain = 0
KDO1 210229Z 11003KT 02/M03 A3007 RMK A01 T00191031  RH  070%=      5-min Rain = 0
KDO1 210230Z 11003KT 02/M03 A3006 RMK A01 T00191030  RH  070%=      5-min Rain = 0
KDO1 210231Z 11003KT 02/M03 A3006 RMK A01 T00191031  RH  070%=      5-min Rain = 0
KDO1 210232Z 11004KT 02/M03 A3006 RMK A01 T00181031  RH  070%=      5-min Rain = 0
KDO1 210233Z 10004KT 02/M03 A3006 RMK A01 T00191030  RH  070%=      5-min Rain = 0
KDO1 210234Z 10004KT 02/M03 A3006 RMK A01 T00191030  RH  070%=      5-min Rain = 0
KDO1 210235Z 10004KT 02/M03 A3006 RMK A01 T00181030  RH  070%=      5-min Rain = 0
KDO1 210236Z 10004KT 02/M03 A3006 RMK A01 T00181031  RH  070%=      5-min Rain = 0
KDO1 210237Z 10004KT 02/M03 A3006 RMK A01 T00181030  RH  070%=      5-min Rain = 0
KDO1 210238Z 10004KT 02/M03 A3006 RMK A01 T00181031  RH  070%=      5-min Rain = 0
KDO1 210239Z 10004KT 02/M03 A3006 RMK A01 T00181031  RH  070%=      5-min Rain = 0
KDO1 210240Z 10004KT 02/M03 A3006 RMK A01 T00181031  RH  070%=      5-min Rain = 0
KDO1 210241Z 10004KT 02/M03 A3006 RMK A01 T00171031  RH  070%=      5-min Rain = 0
KDO1 210242Z 11003KT 02/M03 A3006 RMK A01 T00171031  RH  070%=      5-min Rain = 0
KDO1 210243Z 10003KT 02/M03 A3006 RMK A01 T00171031  RH  070%=      5-min Rain = 0
KDO1 210244Z 10004KT 02/M03 A3006 RMK A01 T00171031  RH  070%=      5-min Rain = 0
KDO1 210245Z 11003KT 02/M03 A3006 RMK A01 T00171031  RH  070%=      5-min Rain = 0
KDO1 210246Z 11004KT 02/M03 A3006 RMK A01 T00171031  RH  070%=      5-min Rain = 0
KDO1 210247Z 10004KT 02/M03 A3006 RMK A01 T00171031  RH  070%=      5-min Rain = 0
KDO1 210248Z 11003KT 02/M03 A3006 RMK A01 T00171031  RH  070%=      5-min Rain = 0
KDO1 210249Z 11003KT 02/M03 A3006 RMK A01 T00171031  RH  070%=      5-min Rain = 0
KDO1 210250Z 11003KT 02/M03 A3006 RMK A01 T00171032  RH  070%=      5-min Rain = 0
KDO1 210251Z 11003KT 02/M03 A3006 RMK A01 T00171032  RH  070%=      5-min Rain = 0
KDO1 210252Z 10004KT 02/M03 A3006 RMK A01 T00171031  RH  070%=      5-min Rain = 0
KDO1 210253Z 10004KT 02/M03 A3006 RMK A01 T00161032  RH  070%=      5-min Rain = 0
KDO1 210254Z 10004KT 02/M03 A3006 RMK A01 T00161032  RH  070%=      5-min Rain = 0
KDO1 210255Z 10004KT 02/M03 A3006 RMK A01 T00161032  RH  070%=      5-min Rain = 0
KDO1 210256Z 10004KT 02/M03 A3006 RMK A01 T00151032  RH  071%=      5-min Rain = 0
KDO1 210257Z 10003KT 02/M03 A3006 RMK A01 T00151032  RH  071%=      5-min Rain = 0
KDO1 210258Z 10003KT 02/M03 A3006 RMK A01 T00151033  RH  071%=      5-min Rain = 0
KDO1 210259Z 09003KT 02/M03 A3006 RMK A01 T00151032  RH  071%=      5-min Rain = 0
KDO1 210300Z 10003KT 01/M03 A3006 RMK A01 T00141033  RH  071%=      5-min Rain = 0
KDO1 210301Z 09003KT 01/M03 A3006 RMK A01 T00141033  RH  071%=      5-min Rain = 0
KDO1 210302Z 10003KT 01/M03 A3006 RMK A01 T00141033  RH  071%=      5-min Rain = 0
KDO1 210303Z 10003KT 01/M03 A3006 RMK A01 T00141032  RH  071%=      5-min Rain = 0
KDO1 210304Z 10003KT 01/M03 A3006 RMK A01 T00141033  RH  071%=      5-min Rain = 0
KDO1 210305Z 10003KT 01/M03 A3006 RMK A01 T00141033  RH  071%=      5-min Rain = 0
KDO1 210306Z 10003KT 01/M03 A3006 RMK A01 T00141033  RH  071%=      5-min Rain = 0
KDO1 210307Z 10003KT 01/M03 A3006 RMK A01 T00131033  RH  071%=      5-min Rain = 0
KDO1 210308Z 10003KT 01/M03 A3006 RMK A01 T00141033  RH  071%=      5-min Rain = 0
KDO1 210309Z 10003KT 01/M03 A3006 RMK A01 T00141033  RH  071%=      5-min Rain = 0
KDO1 210310Z 10003KT 01/M03 A3006 RMK A01 T00141033  RH  071%=      5-min Rain = 0
KDO1 210311Z 10003KT 01/M03 A3005 RMK A01 T00141033  RH  071%=      5-min Rain = 0
KDO1 210312Z 10003KT 01/M03 A3005 RMK A01 T00141033  RH  071%=      5-min Rain = 0
KDO1 210313Z 10003KT 01/M03 A3005 RMK A01 T00141033  RH  071%=      5-min Rain = 0
KDO1 210314Z 10003KT 01/M03 A3005 RMK A01 T00141033  RH  071%=      5-min Rain = 0
KDO1 210315Z 10003KT 01/M03 A3005 RMK A01 T00141033  RH  071%=      5-min Rain = 0
KDO1 210316Z 10004KT 01/M03 A3005 RMK A01 T00141033  RH  071%=      5-min Rain = 0
KDO1 210317Z 10004KT 01/M03 A3005 RMK A01 T00141033  RH  071%=      5-min Rain = 0
KDO1 210318Z 10003KT 01/M03 A3005 RMK A01 T00141033  RH  071%=      5-min Rain = 0
KDO1 210319Z 11003KT 01/M03 A3005 RMK A01 T00141034  RH  071%=      5-min Rain = 0
KDO1 210320Z 11003KT 01/M03 A3005 RMK A01 T00141033  RH  071%=      5-min Rain = 0
KDO1 210321Z 10004KT 01/M03 A3005 RMK A01 T00141034  RH  071%=      5-min Rain = 0
KDO1 210322Z 10003KT 01/M03 A3005 RMK A01 T00141034  RH  070%=      5-min Rain = 0
KDO1 210323Z 10003KT 01/M03 A3005 RMK A01 T00141034  RH  070%=      5-min Rain = 0
KDO1 210324Z 10003KT 01/M03 A3005 RMK A01 T00141034  RH  071%=      5-min Rain = 0
KDO1 210325Z 09003KT 01/M03 A3005 RMK A01 T00131034  RH  071%=      5-min Rain = 0
KDO1 210326Z 09003KT 01/M03 A3005 RMK A01 T00131034  RH  071%=      5-min Rain = 0
KDO1 210327Z 09003KT 01/M03 A3005 RMK A01 T00131034  RH  071%=      5-min Rain = 0
KDO1 210328Z 09003KT 01/M04 A3005 RMK A01 T00121035  RH  071%=      5-min Rain = 0
KDO1 210329Z 09003KT 01/M04 A3005 RMK A01 T00121035  RH  071%=      5-min Rain = 0
KDO1 210330Z 10003KT 01/M04 A3005 RMK A01 T00111035  RH  071%=      5-min Rain = 0
KDO1 210331Z 09003KT 01/M04 A3005 RMK A01 T00111035  RH  071%=      5-min Rain = 0
KDO1 210332Z 10004KT 01/M04 A3005 RMK A01 T00111035  RH  071%=      5-min Rain = 0
KDO1 210333Z 10003KT 01/M04 A3005 RMK A01 T00111035  RH  071%=      5-min Rain = 0
KDO1 210334Z 10004KT 01/M04 A3004 RMK A01 T00121035  RH  071%=      5-min Rain = 0
KDO1 210335Z 10004KT 01/M04 A3004 RMK A01 T00121035  RH  071%=      5-min Rain = 0
KDO1 210336Z 10004KT 01/M04 A3004 RMK A01 T00121035  RH  071%=      5-min Rain = 0
KDO1 210337Z 10004KT 01/M04 A3004 RMK A01 T00121035  RH  071%=      5-min Rain = 0
KDO1 210338Z 10003KT 01/M04 A3004 RMK A01 T00121035  RH  071%=      5-min Rain = 0
KDO1 210339Z 10003KT 01/M04 A3004 RMK A01 T00121035  RH  071%=      5-min Rain = 0
KDO1 210340Z 10003KT 01/M04 A3004 RMK A01 T00121035  RH  071%=      5-min Rain = 0
KDO1 210341Z 09003KT 01/M04 A3004 RMK A01 T00121035  RH  071%=      5-min Rain = 0
KDO1 210342Z 09003KT 01/M04 A3004 RMK A01 T00111035  RH  071%=      5-min Rain = 0
KDO1 210343Z 10004KT 01/M04 A3004 RMK A01 T00111035  RH  071%=      5-min Rain = 0
KDO1 210344Z 09004KT 01/M04 A3004 RMK A01 T00111035  RH  071%=      5-min Rain = 0
KDO1 210345Z 09003KT 01/M04 A3004 RMK A01 T00121035  RH  071%=      5-min Rain = 0
KDO1 210346Z 09004KT 01/M04 A3004 RMK A01 T00111035  RH  071%=      5-min Rain = 0
KDO1 210347Z 09003KT 01/M04 A3004 RMK A01 T00121035  RH  071%=      5-min Rain = 0
KDO1 210348Z 09003KT 01/M04 A3004 RMK A01 T00121035  RH  071%=      5-min Rain = 0
KDO1 210349Z 09004KT 01/M04 A3004 RMK A01 T00111035  RH  071%=      5-min Rain = 0
KDO1 210350Z 09004KT 01/M04 A3004 RMK A01 T00111035  RH  071%=      5-min Rain = 0
KDO1 210351Z 09004KT 01/M04 A3004 RMK A01 T00111036  RH  071%=      5-min Rain = 0
KDO1 210352Z 09004KT 01/M04 A3004 RMK A01 T00111036  RH  071%=      5-min Rain = 0
KDO1 210353Z 09004KT 01/M04 A3004 RMK A01 T00111035  RH  071%=      5-min Rain = 0
KDO1 210354Z 09004KT 01/M04 A3004 RMK A01 T00111036  RH  071%=      5-min Rain = 0
KDO1 210355Z 09004KT 01/M04 A3004 RMK A01 T00101036  RH  071%=      5-min Rain = 0
KDO1 210356Z 09004KT 01/M04 A3003 RMK A01 T00101036  RH  071%=      5-min Rain = 0
KDO1 210357Z 09004KT 01/M04 A3003 RMK A01 T00101036  RH  071%=      5-min Rain = 0
KDO1 210358Z 09004KT 01/M04 A3003 RMK A01 T00101036  RH  072%=      5-min Rain = 0
KDO1 210359Z 08004KT 01/M04 A3003 RMK A01 T00091036  RH  072%=      5-min Rain = 0
KDO1 210400Z 08004KT 01/M04 A3003 RMK A01 T00101036  RH  072%=      5-min Rain = 0
KDO1 210401Z 08004KT 01/M04 A3003 RMK A01 T00091036  RH  072%=      5-min Rain = 0
KDO1 210402Z 08004KT 01/M04 A3003 RMK A01 T00091036  RH  072%=      5-min Rain = 0
KDO1 210403Z 08004KT 01/M04 A3003 RMK A01 T00101035  RH  072%=      5-min Rain = 0
KDO1 210404Z 09004KT 01/M04 A3003 RMK A01 T00101035  RH  072%=      5-min Rain = 0
KDO1 210405Z 09004KT 01/M04 A3004 RMK A01 T00091036  RH  072%=      5-min Rain = 0
KDO1 210406Z 09003KT 01/M04 A3004 RMK A01 T00101035  RH  072%=      5-min Rain = 0
KDO1 210407Z 09003KT 01/M04 A3004 RMK A01 T00091036  RH  072%=      5-min Rain = 0
KDO1 210408Z 09003KT 01/M04 A3004 RMK A01 T00101036  RH  072%=      5-min Rain = 0
KDO1 210409Z 10003KT 01/M04 A3004 RMK A01 T00101036  RH  071%=      5-min Rain = 0
KDO1 210410Z 09004KT 01/M04 A3003 RMK A01 T00101036  RH  071%=      5-min Rain = 0
KDO1 210411Z 09003KT 01/M04 A3003 RMK A01 T00101036  RH  071%=      5-min Rain = 0
KDO1 210412Z 10004KT 01/M04 A3003 RMK A01 T00101036  RH  071%=      5-min Rain = 0
KDO1 210413Z 10004KT 01/M04 A3003 RMK A01 T00101036  RH  071%=      5-min Rain = 0
KDO1 210414Z 09004KT 01/M04 A3003 RMK A01 T00101036  RH  071%=      5-min Rain = 0
KDO1 210415Z 09004KT 01/M04 A3003 RMK A01 T00101036  RH  071%=      5-min Rain = 0
KDO1 210416Z 09004KT 01/M04 A3003 RMK A01 T00091036  RH  071%=      5-min Rain = 0
KDO1 210417Z 08004KT 01/M04 A3003 RMK A01 T00091037  RH  072%=      5-min Rain = 0
KDO1 210418Z 08004KT 01/M04 A3003 RMK A01 T00091036  RH  072%=      5-min Rain = 0
KDO1 210419Z 08004KT 01/M04 A3003 RMK A01 T00081036  RH  072%=      5-min Rain = 0
KDO1 210420Z 08004KT 01/M04 A3003 RMK A01 T00081036  RH  072%=      5-min Rain = 0
KDO1 210421Z 08004KT 01/M04 A3003 RMK A01 T00081036  RH  072%=      5-min Rain = 0
KDO1 210422Z 08004KT 01/M04 A3003 RMK A01 T00081036  RH  072%=      5-min Rain = 0
KDO1 210423Z 08004KT 01/M04 A3003 RMK A01 T00081036  RH  072%=      5-min Rain = 0
KDO1 210424Z 08004KT 01/M04 A3003 RMK A01 T00081036  RH  072%=      5-min Rain = 0
KDO1 210425Z 08003KT 01/M04 A3003 RMK A01 T00081036  RH  072%=      5-min Rain = 0
KDO1 210426Z 08003KT 01/M04 A3003 RMK A01 T00081036  RH  072%=      5-min Rain = 0
KDO1 210427Z 07003KT 01/M04 A3003 RMK A01 T00081036  RH  072%=      5-min Rain = 0
KDO1 210428Z 07003KT 01/M04 A3003 RMK A01 T00081036  RH  072%=      5-min Rain = 0
KDO1 210429Z 08004KT 01/M04 A3003 RMK A01 T00081036  RH  072%=      5-min Rain = 0
KDO1 210430Z 07003KT 01/M04 A3003 RMK A01 T00081036  RH  072%=      5-min Rain = 0
KDO1 210431Z 07003KT 01/M04 A3003 RMK A01 T00081036  RH  072%=      5-min Rain = 0
KDO1 210432Z 07003KT 01/M04 A3003 RMK A01 T00091036  RH  072%=      5-min Rain = 0
KDO1 210433Z 08003KT 01/M04 A3003 RMK A01 T00091036  RH  072%=      5-min Rain = 0
KDO1 210434Z 07003KT 01/M04 A3003 RMK A01 T00091036  RH  072%=      5-min Rain = 0
KDO1 210435Z 08003KT 01/M04 A3003 RMK A01 T00091036  RH  072%=      5-min Rain = 0
KDO1 210436Z 07003KT 01/M04 A3003 RMK A01 T00091036  RH  072%=      5-min Rain = 0
KDO1 210437Z 08003KT 01/M04 A3003 RMK A01 T00091036  RH  072%=      5-min Rain = 0
KDO1 210438Z 08003KT 01/M04 A3003 RMK A01 T00081036  RH  072%=      5-min Rain = 0
KDO1 210439Z 07003KT 01/M04 A3003 RMK A01 T00071037  RH  072%=      5-min Rain = 0
KDO1 210440Z 07003KT 01/M04 A3003 RMK A01 T00071037  RH  073%=      5-min Rain = 0
KDO1 210441Z 07003KT 01/M04 A3003 RMK A01 T00071037  RH  073%=      5-min Rain = 0
KDO1 210442Z 07003KT 01/M04 A3003 RMK A01 T00071037  RH  073%=      5-min Rain = 0
KDO1 210443Z 08003KT 01/M04 A3003 RMK A01 T00071037  RH  073%=      5-min Rain = 0
KDO1 210444Z 08003KT 01/M04 A3003 RMK A01 T00071037  RH  073%=      5-min Rain = 0
KDO1 210445Z 08003KT 01/M04 A3003 RMK A01 T00071037  RH  072%=      5-min Rain = 0
KDO1 210446Z 08004KT 01/M04 A3003 RMK A01 T00071037  RH  072%=      5-min Rain = 0
KDO1 210447Z 08004KT 01/M04 A3003 RMK A01 T00071037  RH  072%=      5-min Rain = 0
KDO1 210448Z 08003KT 01/M04 A3003 RMK A01 T00081037  RH  072%=      5-min Rain = 0
KDO1 210449Z 08003KT 01/M04 A3003 RMK A01 T00081037  RH  072%=      5-min Rain = 0
KDO1 210450Z 08003KT 01/M04 A3003 RMK A01 T00081037  RH  072%=      5-min Rain = 0
KDO1 210451Z 08003KT 01/M04 A3003 RMK A01 T00071037  RH  072%=      5-min Rain = 0
KDO1 210452Z 08003KT 01/M04 A3003 RMK A01 T00071037  RH  072%=      5-min Rain = 0
KDO1 210453Z 09003KT 01/M04 A3003 RMK A01 T00071037  RH  072%=      5-min Rain = 0
KDO1 210454Z 09003KT 01/M04 A3003 RMK A01 T00071038  RH  072%=      5-min Rain = 0
KDO1 210455Z 08003KT 01/M04 A3003 RMK A01 T00071038  RH  072%=      5-min Rain = 0
KDO1 210456Z 08003KT 01/M04 A3003 RMK A01 T00071038  RH  072%=      5-min Rain = 0
KDO1 210457Z 08003KT 01/M04 A3003 RMK A01 T00071037  RH  072%=      5-min Rain = 0
KDO1 210458Z 08003KT 01/M04 A3003 RMK A01 T00071037  RH  072%=      5-min Rain = 0
KDO1 210459Z 08003KT 01/M04 A3003 RMK A01 T00071037  RH  072%=      5-min Rain = 0
KDO1 210500Z 08003KT 01/M04 A3003 RMK A01 T00071037  RH  072%=      5-min Rain = 0
KDO1 210501Z 07002KT 01/M04 A3003 RMK A01 T00061038  RH  072%=      5-min Rain = 0
KDO1 210502Z 07002KT 01/M04 A3003 RMK A01 T00061038  RH  072%=      5-min Rain = 0
KDO1 210503Z 07002KT 01/M04 A3003 RMK A01 T00061038  RH  072%=      5-min Rain = 0
KDO1 210504Z 07003KT 01/M04 A3003 RMK A01 T00061038  RH  072%=      5-min Rain = 0
KDO1 210505Z 07003KT 01/M04 A3003 RMK A01 T00061038  RH  072%=      5-min Rain = 0
KDO1 210506Z 07003KT 01/M04 A3003 RMK A01 T00061038  RH  072%=      5-min Rain = 0
KDO1 210507Z 07003KT 01/M04 A3003 RMK A01 T00061038  RH  072%=      5-min Rain = 0
KDO1 210508Z 07003KT 01/M04 A3003 RMK A01 T00051038  RH  073%=      5-min Rain = 0
KDO1 210509Z 07003KT 00/M04 A3003 RMK A01 T00041038  RH  073%=      5-min Rain = 0
KDO1 210510Z 07003KT 00/M04 A3003 RMK A01 T00041038  RH  073%=      5-min Rain = 0
KDO1 210511Z 07003KT 00/M04 A3003 RMK A01 T00041038  RH  074%=      5-min Rain = 0
KDO1 210512Z 07003KT 00/M04 A3003 RMK A01 T00041038  RH  073%=      5-min Rain = 0
KDO1 210513Z 07003KT 01/M04 A3003 RMK A01 T00051038  RH  073%=      5-min Rain = 0
KDO1 210514Z 06003KT 01/M04 A3003 RMK A01 T00061038  RH  073%=      5-min Rain = 0
KDO1 210515Z 06003KT 01/M04 A3003 RMK A01 T00061038  RH  072%=      5-min Rain = 0
KDO1 210516Z 06003KT 01/M04 A3003 RMK A01 T00071037  RH  072%=      5-min Rain = 0
KDO1 210517Z 07003KT 01/M04 A3003 RMK A01 T00071038  RH  072%=      5-min Rain = 0
KDO1 210518Z 06003KT 01/M04 A3003 RMK A01 T00071038  RH  072%=      5-min Rain = 0
KDO1 210519Z 07003KT 01/M04 A3003 RMK A01 T00061038  RH  072%=      5-min Rain = 0
KDO1 210520Z 06003KT 01/M04 A3003 RMK A01 T00061038  RH  072%=      5-min Rain = 0
KDO1 210521Z 07003KT 01/M04 A3003 RMK A01 T00061038  RH  072%=      5-min Rain = 0
KDO1 210522Z 06003KT 01/M04 A3003 RMK A01 T00061038  RH  072%=      5-min Rain = 0
KDO1 210523Z 07003KT 01/M04 A3003 RMK A01 T00061038  RH  072%=      5-min Rain = 0
KDO1 210524Z 07003KT 01/M04 A3003 RMK A01 T00071038  RH  072%=      5-min Rain = 0
KDO1 210525Z 07003KT 01/M04 A3003 RMK A01 T00061038  RH  072%=      5-min Rain = 0
KDO1 210526Z 07002KT 01/M04 A3003 RMK A01 T00061038  RH  072%=      5-min Rain = 0
KDO1 210527Z 07002KT 01/M04 A3003 RMK A01 T00061038  RH  072%=      5-min Rain = 0
KDO1 210528Z 06002KT 01/M04 A3003 RMK A01 T00061038  RH  072%=      5-min Rain = 0
KDO1 210529Z 08002KT 01/M04 A3003 RMK A01 T00051038  RH  073%=      5-min Rain = 0
KDO1 210530Z 06002KT 00/M04 A3003 RMK A01 T00041039  RH  073%=      5-min Rain = 0
KDO1 210531Z 06002KT 00/M04 A3003 RMK A01 T00031039  RH  073%=      5-min Rain = 0
KDO1 210532Z 06002KT 00/M04 A3003 RMK A01 T00021039  RH  074%=      5-min Rain = 0
KDO1 210533Z 07002KT 00/M04 A3003 RMK A01 T00021039  RH  074%=      5-min Rain = 0
KDO1 210534Z 07002KT 00/M04 A3003 RMK A01 T00011039  RH  074%=      5-min Rain = 0
KDO1 210535Z 07002KT 00/M04 A3003 RMK A01 T00011039  RH  075%=      5-min Rain = 0
KDO1 210536Z 07002KT 00/M04 A3003 RMK A01 T00011039  RH  074%=      5-min Rain = 0
KDO1 210537Z 07002KT 00/M04 A3003 RMK A01 T00011039  RH  075%=      5-min Rain = 0
KDO1 210538Z 06002KT 00/04 A3003 RMK A01 T00000-39  RH  075%=      5-min Rain = 0
KDO1 210539Z 07002KT 00/M04 A3003 RMK A01 T00011039  RH  075%=      5-min Rain = 0
KDO1 210540Z 07002KT 00/M04 A3003 RMK A01 T00011039  RH  075%=      5-min Rain = 0
KDO1 210541Z 08002KT 00/04 A3003 RMK A01 T00000-39  RH  075%=      5-min Rain = 0
KDO1 210542Z 08003KT 00/04 A3003 RMK A01 T00000-39  RH  075%=      5-min Rain = 0
KDO1 210543Z 08003KT 00/04 A3003 RMK A01 T00000-39  RH  075%=      5-min Rain = 0
KDO1 210544Z 09003KT 00/04 A3003 RMK A01 T00000-39  RH  075%=      5-min Rain = 0
KDO1 210545Z 08003KT 00/M04 A3003 RMK A01 T00011039  RH  074%=      5-min Rain = 0
KDO1 210546Z 09003KT 00/M04 A3003 RMK A01 T00011039  RH  074%=      5-min Rain = 0
KDO1 210547Z 09002KT 00/M04 A3003 RMK A01 T00021039  RH  074%=      5-min Rain = 0
KDO1 210548Z 09002KT 00/M04 A3003 RMK A01 T00021040  RH  074%=      5-min Rain = 0
KDO1 210549Z 08002KT 00/M04 A3003 RMK A01 T00021039  RH  074%=      5-min Rain = 0
KDO1 210550Z 09002KT 00/M04 A3003 RMK A01 T00021040  RH  074%=      5-min Rain = 0
KDO1 210551Z 08002KT 00/M04 A3003 RMK A01 T00021039  RH  074%=      5-min Rain = 0
KDO1 210552Z 08003KT 00/M04 A3003 RMK A01 T00021040  RH  074%=      5-min Rain = 0
KDO1 210553Z 08003KT 00/M04 A3003 RMK A01 T00021040  RH  074%=      5-min Rain = 0
KDO1 210554Z 08003KT 00/M04 A3003 RMK A01 T00021040  RH  074%=      5-min Rain = 0
KDO1 210555Z 08003KT 00/M04 A3002 RMK A01 T00021040  RH  074%=      5-min Rain = 0
KDO1 210556Z 08002KT 00/M04 A3002 RMK A01 T00021040  RH  074%=      5-min Rain = 0
KDO1 210557Z 08002KT 00/M04 A3002 RMK A01 T00021040  RH  074%=      5-min Rain = 0
KDO1 210558Z 08002KT 00/M04 A3002 RMK A01 T00021040  RH  074%=      5-min Rain = 0
KDO1 210559Z 08002KT 00/M04 A3002 RMK A01 T00011040  RH  074%=      5-min Rain = 0

Page generated in 0.0334 seconds.